Observation data for Welch on 11/14/2019      Previous  Date  Next       Current Mesonet Observations  Soil Data  Daily Summary Page  Observations in Plain Language
KWE2 140600Z 02002KT 02/01 A3008 RMK A01 T00170007  RH  093%=      5-min Rain = 0
KWE2 140601Z 03002KT 02/01 A3008 RMK A01 T00170006  RH  092%=      5-min Rain = 0
KWE2 140602Z 03002KT 02/00 A3008 RMK A01 T00170004  RH  091%=      5-min Rain = 0
KWE2 140603Z 03003KT 02/00 A3008 RMK A01 T00160002  RH  091%=      5-min Rain = 0
KWE2 140604Z 01002KT 02/00 A3008 RMK A01 T00160003  RH  092%=      5-min Rain = 0
KWE2 140605Z 00002KT 02/00 A3008 RMK A01 T00160004  RH  092%=      5-min Rain = 0
KWE2 140606Z 00002KT 02/00 A3008 RMK A01 T00150004  RH  092%=      5-min Rain = 0
KWE2 140607Z 01003KT 02/00 A3008 RMK A01 T00150002  RH  091%=      5-min Rain = 0
KWE2 140608Z 01003KT 01/00 A3008 RMK A01 T00140003  RH  092%=      5-min Rain = 0
KWE2 140609Z 00003KT 01/00 A3008 RMK A01 T00140003  RH  092%=      5-min Rain = 0
KWE2 140610Z 00003KT 01/00 A3008 RMK A01 T00130001  RH  092%=      5-min Rain = 0
KWE2 140611Z 01004KT 01/M00 A3008 RMK A01 T00111001  RH  092%=      5-min Rain = 0
KWE2 140612Z 00004KT 01/M00 A3008 RMK A01 T00101001  RH  092%=      5-min Rain = 0
KWE2 140613Z 00004KT 01/M00 A3008 RMK A01 T00091001  RH  094%=      5-min Rain = 0
KWE2 140614Z 01004KT 01/00 A3008 RMK A01 T000800-0  RH  094%=      5-min Rain = 0
KWE2 140615Z 01004KT 01/00 A3008 RMK A01 T00080000  RH  095%=      5-min Rain = 0
KWE2 140616Z 00004KT 01/00 A3008 RMK A01 T00080001  RH  095%=      5-min Rain = 0
KWE2 140617Z 00004KT 01/00 A3008 RMK A01 T00080001  RH  095%=      5-min Rain = 0
KWE2 140618Z 00004KT 01/00 A3008 RMK A01 T000700-0  RH  095%=      5-min Rain = 0
KWE2 140619Z 00004KT 01/M00 A3008 RMK A01 T00071001  RH  094%=      5-min Rain = 0
KWE2 140620Z 01004KT 01/M00 A3008 RMK A01 T00061002  RH  094%=      5-min Rain = 0
KWE2 140621Z 01003KT 01/M00 A3008 RMK A01 T00051002  RH  095%=      5-min Rain = 0
KWE2 140622Z 01003KT 01/M00 A3008 RMK A01 T00051002  RH  095%=      5-min Rain = 0
KWE2 140623Z 00004KT 01/M00 A3008 RMK A01 T00051002  RH  096%=      5-min Rain = 0
KWE2 140624Z 01003KT 00/M00 A3008 RMK A01 T00041001  RH  096%=      5-min Rain = 0
KWE2 140625Z 03003KT 00/M00 A3008 RMK A01 T00041001  RH  096%=      5-min Rain = 0
KWE2 140626Z 03003KT 00/00 A3008 RMK A01 T00040000  RH  097%=      5-min Rain = 0
KWE2 140627Z 02004KT 01/00 A3008 RMK A01 T00050001  RH  098%=      5-min Rain = 0
KWE2 140628Z 02004KT 01/00 A3008 RMK A01 T00050001  RH  097%=      5-min Rain = 0
KWE2 140629Z 02004KT 01/00 A3008 RMK A01 T00050001  RH  097%=      5-min Rain = 0
KWE2 140630Z 02004KT 00/00 A3008 RMK A01 T000400-0  RH  097%=      5-min Rain = 0
KWE2 140631Z 01004KT 00/00 A3008 RMK A01 T000400-0  RH  097%=      5-min Rain = 0
KWE2 140632Z 01004KT 00/00 A3008 RMK A01 T000400-0  RH  097%=      5-min Rain = 0
KWE2 140633Z 01004KT 00/M00 A3008 RMK A01 T00041001  RH  097%=      5-min Rain = 0
KWE2 140634Z 01005KT 00/M00 A3008 RMK A01 T00031001  RH  097%=      5-min Rain = 0
KWE2 140635Z 01005KT 00/M00 A3008 RMK A01 T00031002  RH  097%=      5-min Rain = 0
KWE2 140636Z 02005KT 00/M00 A3008 RMK A01 T00021001  RH  097%=      5-min Rain = 0
KWE2 140637Z 02005KT 00/M00 A3008 RMK A01 T00021001  RH  098%=      5-min Rain = 0
KWE2 140638Z 01005KT 00/00 A3008 RMK A01 T00030001  RH  099%=      5-min Rain = 0
KWE2 140639Z 01005KT 00/00 A3008 RMK A01 T00040003  RH  099%=      5-min Rain = 0
KWE2 140640Z 01005KT 00/00 A3009 RMK A01 T00040004  RH  100%=      5-min Rain = 0
KWE2 140641Z 01006KT 01/01 A3009 RMK A01 T00050005  RH  100%=      5-min Rain = 0
KWE2 140642Z 01006KT 01/01 A3009 RMK A01 T00060005  RH  100%=      5-min Rain = 0
KWE2 140643Z 01006KT 01/01 A3009 RMK A01 T00070006  RH  099%=      5-min Rain = 0
KWE2 140644Z 01007KT 01/01 A3009 RMK A01 T00070006  RH  099%=      5-min Rain = 0
KWE2 140645Z 01007KT 01/01 A3009 RMK A01 T00070005  RH  099%=      5-min Rain = 0
KWE2 140646Z 00007KT 01/01 A3009 RMK A01 T00080005  RH  098%=      5-min Rain = 0
KWE2 140647Z 00007KT 01/01 A3009 RMK A01 T00080005  RH  098%=      5-min Rain = 0
KWE2 140648Z 36007KT 01/00 A3009 RMK A01 T00080004  RH  097%=      5-min Rain = 0
KWE2 140649Z 36006KT 01/00 A3009 RMK A01 T00070004  RH  097%=      5-min Rain = 0
KWE2 140650Z 36007KT 01/01 A3009 RMK A01 T00080006  RH  099%=      5-min Rain = 0
KWE2 140651Z 00007KT 01/01 A3009 RMK A01 T00100010  RH  100%=      5-min Rain = 0
KWE2 140652Z 36006KT 01/01 A3009 RMK A01 T00120012  RH  100%=      5-min Rain = 0
KWE2 140653Z 00006KT 01/01 A3009 RMK A01 T00140014  RH  100%=      5-min Rain = 0
KWE2 140654Z 00006KT 02/02 A3009 RMK A01 T00160015  RH  099%=      5-min Rain = 0
KWE2 140655Z 00006KT 02/01 A3009 RMK A01 T00170014  RH  098%=      5-min Rain = 0
KWE2 140656Z 00006KT 02/01 A3009 RMK A01 T00180013  RH  097%=      5-min Rain = 0
KWE2 140657Z 00005KT 02/01 A3009 RMK A01 T00180012  RH  096%=      5-min Rain = 0
KWE2 140658Z 00005KT 02/01 A3009 RMK A01 T00180012  RH  095%=      5-min Rain = 0
KWE2 140659Z 00005KT 02/01 A3009 RMK A01 T00180011  RH  095%=      5-min Rain = 0
KWE2 140700Z 00005KT 02/01 A3009 RMK A01 T00180011  RH  095%=      5-min Rain = 0
KWE2 140701Z 00006KT 02/01 A3009 RMK A01 T00170011  RH  095%=      5-min Rain = 0
KWE2 140702Z 00006KT 02/01 A3009 RMK A01 T00170010  RH  095%=      5-min Rain = 0
KWE2 140703Z 00006KT 02/01 A3009 RMK A01 T00170010  RH  096%=      5-min Rain = 0
KWE2 140704Z 00006KT 02/01 A3009 RMK A01 T00170011  RH  095%=      5-min Rain = 0
KWE2 140705Z 00006KT 02/01 A3009 RMK A01 T00170010  RH  095%=      5-min Rain = 0
KWE2 140706Z 00006KT 02/01 A3009 RMK A01 T00170010  RH  095%=      5-min Rain = 0
KWE2 140707Z 00006KT 02/01 A3009 RMK A01 T00170009  RH  094%=      5-min Rain = 0
KWE2 140708Z 00006KT 02/01 A3009 RMK A01 T00170008  RH  094%=      5-min Rain = 0
KWE2 140709Z 36006KT 02/01 A3009 RMK A01 T00160008  RH  094%=      5-min Rain = 0
KWE2 140710Z 00006KT 02/01 A3009 RMK A01 T00150008  RH  095%=      5-min Rain = 0
KWE2 140711Z 00007KT 02/01 A3009 RMK A01 T00150008  RH  095%=      5-min Rain = 0
KWE2 140712Z 00007KT 02/01 A301 RMK A01 T00150008  RH  095%=      5-min Rain = 0
KWE2 140713Z 00007KT 02/01 A301 RMK A01 T00150008  RH  095%=      5-min Rain = 0
KWE2 140714Z 00007KT 02/01 A301 RMK A01 T00150009  RH  095%=      5-min Rain = 0
KWE2 140715Z 36007KT 02/01 A301 RMK A01 T00160009  RH  095%=      5-min Rain = 0
KWE2 140716Z 36007KT 02/01 A301 RMK A01 T00170010  RH  095%=      5-min Rain = 0
KWE2 140717Z 36007KT 02/01 A301 RMK A01 T00180012  RH  095%=      5-min Rain = 0
KWE2 140718Z 36008KT 02/01 A301 RMK A01 T00190012  RH  095%=      5-min Rain = 0
KWE2 140719Z 36008KT 02/01 A301 RMK A01 T00210013  RH  095%=      5-min Rain = 0
KWE2 140720Z 36008KT 02/01 A301 RMK A01 T00220013  RH  093%=      5-min Rain = 0
KWE2 140721Z 36008KT 02/01 A301 RMK A01 T00240013  RH  092%=      5-min Rain = 0
KWE2 140722Z 00008KT 03/01 A301 RMK A01 T00250013  RH  091%=      5-min Rain = 0
KWE2 140723Z 36008KT 03/01 A301 RMK A01 T00260012  RH  090%=      5-min Rain = 0
KWE2 140724Z 36008KT 03/01 A301 RMK A01 T00260012  RH  090%=      5-min Rain = 0
KWE2 140725Z 36007KT 03/01 A301 RMK A01 T00260011  RH  090%=      5-min Rain = 0
KWE2 140726Z 00007KT 03/01 A301 RMK A01 T00260011  RH  090%=      5-min Rain = 0
KWE2 140727Z 36007KT 03/01 A301 RMK A01 T00250010  RH  090%=      5-min Rain = 0
KWE2 140728Z 00007KT 03/01 A301 RMK A01 T00250010  RH  090%=      5-min Rain = 0
KWE2 140729Z 00007KT 02/01 A301 RMK A01 T00240009  RH  090%=      5-min Rain = 0
KWE2 140730Z 36007KT 02/01 A301 RMK A01 T00230010  RH  091%=      5-min Rain = 0
KWE2 140731Z 00007KT 02/01 A301 RMK A01 T00230010  RH  091%=      5-min Rain = 0
KWE2 140732Z 00007KT 02/01 A301 RMK A01 T00230010  RH  091%=      5-min Rain = 0
KWE2 140733Z 00007KT 02/01 A301 RMK A01 T00230010  RH  091%=      5-min Rain = 0
KWE2 140734Z 00007KT 02/01 A301 RMK A01 T00230010  RH  091%=      5-min Rain = 0
KWE2 140735Z 00008KT 02/01 A301 RMK A01 T00230010  RH  091%=      5-min Rain = 0
KWE2 140736Z 00008KT 02/01 A3011 RMK A01 T00240011  RH  091%=      5-min Rain = 0
KWE2 140737Z 00008KT 03/01 A3011 RMK A01 T00250012  RH  091%=      5-min Rain = 0
KWE2 140738Z 01009KT 03/01 A3011 RMK A01 T00270012  RH  090%=      5-min Rain = 0
KWE2 140739Z 00009KT 03/01 A3011 RMK A01 T00270011  RH  089%=      5-min Rain = 0
KWE2 140740Z 00009KT 03/01 A3011 RMK A01 T00270011  RH  089%=      5-min Rain = 0
KWE2 140741Z 00008KT 03/01 A3011 RMK A01 T00270011  RH  089%=      5-min Rain = 0
KWE2 140742Z 01008KT 03/01 A3011 RMK A01 T00270011  RH  089%=      5-min Rain = 0
KWE2 140743Z 00008KT 03/01 A3011 RMK A01 T00270011  RH  089%=      5-min Rain = 0
KWE2 140744Z 01008KT 03/01 A3011 RMK A01 T00270011  RH  089%=      5-min Rain = 0
KWE2 140745Z 01008KT 03/01 A3011 RMK A01 T00270011  RH  089%=      5-min Rain = 0
KWE2 140746Z 01008KT 03/01 A3011 RMK A01 T00260011  RH  089%=      5-min Rain = 0
KWE2 140747Z 01008KT 03/01 A3011 RMK A01 T00270011  RH  089%=      5-min Rain = 0
KWE2 140748Z 01009KT 03/01 A3011 RMK A01 T00270011  RH  089%=      5-min Rain = 0
KWE2 140749Z 01009KT 03/01 A3011 RMK A01 T00270011  RH  089%=      5-min Rain = 0
KWE2 140750Z 01008KT 03/01 A3011 RMK A01 T00280011  RH  089%=      5-min Rain = 0
KWE2 140751Z 01008KT 03/01 A3011 RMK A01 T00280011  RH  089%=      5-min Rain = 0
KWE2 140752Z 01008KT 03/01 A3011 RMK A01 T00290012  RH  089%=      5-min Rain = 0
KWE2 140753Z 01008KT 03/01 A3011 RMK A01 T00300012  RH  088%=      5-min Rain = 0
KWE2 140754Z 01007KT 03/01 A3011 RMK A01 T00300011  RH  088%=      5-min Rain = 0
KWE2 140755Z 01007KT 03/01 A3011 RMK A01 T00300011  RH  088%=      5-min Rain = 0
KWE2 140756Z 01007KT 03/01 A3011 RMK A01 T00290011  RH  088%=      5-min Rain = 0
KWE2 140757Z 01007KT 03/01 A3012 RMK A01 T00290011  RH  088%=      5-min Rain = 0
KWE2 140758Z 01007KT 03/01 A3012 RMK A01 T00280010  RH  088%=      5-min Rain = 0
KWE2 140759Z 01007KT 03/01 A3012 RMK A01 T00270010  RH  089%=      5-min Rain = 0
KWE2 140800Z 00006KT 03/01 A3012 RMK A01 T00260010  RH  089%=      5-min Rain = 0
KWE2 140801Z 00007KT 03/01 A3012 RMK A01 T00260010  RH  089%=      5-min Rain = 0
KWE2 140802Z 00007KT 03/01 A3012 RMK A01 T00260010  RH  089%=      5-min Rain = 0
KWE2 140803Z 36007KT 03/01 A3012 RMK A01 T00250009  RH  089%=      5-min Rain = 0
KWE2 140804Z 00006KT 03/01 A3012 RMK A01 T00250009  RH  090%=      5-min Rain = 0
KWE2 140805Z 00007KT 02/01 A3012 RMK A01 T00240009  RH  090%=      5-min Rain = 0
KWE2 140806Z 00006KT 02/01 A3012 RMK A01 T00240009  RH  090%=      5-min Rain = 0
KWE2 140807Z 00007KT 02/01 A3012 RMK A01 T00240008  RH  090%=      5-min Rain = 0
KWE2 140808Z 01007KT 02/01 A3012 RMK A01 T00230008  RH  090%=      5-min Rain = 0
KWE2 140809Z 00007KT 02/01 A3012 RMK A01 T00230008  RH  090%=      5-min Rain = 0
KWE2 140810Z 00006KT 02/01 A3012 RMK A01 T00230008  RH  090%=      5-min Rain = 0
KWE2 140811Z 00007KT 02/01 A3012 RMK A01 T00230008  RH  090%=      5-min Rain = 0
KWE2 140812Z 01007KT 02/01 A3012 RMK A01 T00220008  RH  090%=      5-min Rain = 0
KWE2 140813Z 00006KT 02/01 A3012 RMK A01 T00220008  RH  090%=      5-min Rain = 0
KWE2 140814Z 01006KT 02/01 A3012 RMK A01 T00230008  RH  090%=      5-min Rain = 0
KWE2 140815Z 01006KT 02/01 A3012 RMK A01 T00230008  RH  090%=      5-min Rain = 0
KWE2 140816Z 01007KT 02/01 A3012 RMK A01 T00220008  RH  090%=      5-min Rain = 0
KWE2 140817Z 01006KT 02/01 A3012 RMK A01 T00220008  RH  090%=      5-min Rain = 0
KWE2 140818Z 00007KT 02/01 A3012 RMK A01 T00220007  RH  090%=      5-min Rain = 0
KWE2 140819Z 00006KT 02/01 A3012 RMK A01 T00230008  RH  090%=      5-min Rain = 0
KWE2 140820Z 00006KT 02/01 A3012 RMK A01 T00230007  RH  090%=      5-min Rain = 0
KWE2 140821Z 00006KT 02/01 A3012 RMK A01 T00230007  RH  090%=      5-min Rain = 0
KWE2 140822Z 00006KT 02/01 A3012 RMK A01 T00220007  RH  090%=      5-min Rain = 0
KWE2 140823Z 00006KT 02/01 A3012 RMK A01 T00230007  RH  090%=      5-min Rain = 0
KWE2 140824Z 00006KT 02/01 A3012 RMK A01 T00220007  RH  090%=      5-min Rain = 0
KWE2 140825Z 00007KT 02/01 A3012 RMK A01 T00220007  RH  090%=      5-min Rain = 0
KWE2 140826Z 00007KT 02/01 A3012 RMK A01 T00220007  RH  090%=      5-min Rain = 0
KWE2 140827Z 36006KT 02/01 A3013 RMK A01 T00220007  RH  090%=      5-min Rain = 0
KWE2 140828Z 36007KT 02/01 A3013 RMK A01 T00220007  RH  090%=      5-min Rain = 0
KWE2 140829Z 35007KT 02/01 A3013 RMK A01 T00220007  RH  090%=      5-min Rain = 0
KWE2 140830Z 36007KT 02/01 A3013 RMK A01 T00210007  RH  090%=      5-min Rain = 0
KWE2 140831Z 35008KT 02/01 A3013 RMK A01 T00220007  RH  090%=      5-min Rain = 0
KWE2 140832Z 35008KT 02/01 A3013 RMK A01 T00220007  RH  090%=      5-min Rain = 0
KWE2 140833Z 36009KT 02/01 A3013 RMK A01 T00220007  RH  089%=      5-min Rain = 0
KWE2 140834Z 36008KT 02/01 A3013 RMK A01 T00230006  RH  089%=      5-min Rain = 0
KWE2 140835Z 36008KT 02/01 A3013 RMK A01 T00230006  RH  089%=      5-min Rain = 0
KWE2 140836Z 36008KT 02/01 A3013 RMK A01 T00230006  RH  088%=      5-min Rain = 0
KWE2 140837Z 35008KT 02/01 A3013 RMK A01 T00230006  RH  089%=      5-min Rain = 0
KWE2 140838Z 36007KT 02/01 A3013 RMK A01 T00230006  RH  089%=      5-min Rain = 0
KWE2 140839Z 36007KT 02/01 A3013 RMK A01 T00230006  RH  089%=      5-min Rain = 0
KWE2 140840Z 36007KT 02/01 A3013 RMK A01 T00230006  RH  089%=      5-min Rain = 0
KWE2 140841Z 36006KT 02/01 A3013 RMK A01 T00230006  RH  089%=      5-min Rain = 0
KWE2 140842Z 36006KT 02/01 A3013 RMK A01 T00220006  RH  089%=      5-min Rain = 0
KWE2 140843Z 00007KT 02/01 A3013 RMK A01 T00220005  RH  089%=      5-min Rain = 0
KWE2 140844Z 35006KT 02/01 A3013 RMK A01 T00220006  RH  089%=      5-min Rain = 0
KWE2 140845Z 36006KT 02/01 A3013 RMK A01 T00220005  RH  089%=      5-min Rain = 0
KWE2 140846Z 35006KT 02/01 A3013 RMK A01 T00210005  RH  089%=      5-min Rain = 0
KWE2 140847Z 35007KT 02/01 A3013 RMK A01 T00210005  RH  089%=      5-min Rain = 0
KWE2 140848Z 35008KT 02/01 A3013 RMK A01 T00200005  RH  090%=      5-min Rain = 0
KWE2 140849Z 35007KT 02/01 A3013 RMK A01 T00190005  RH  090%=      5-min Rain = 0
KWE2 140850Z 35008KT 02/01 A3013 RMK A01 T00190005  RH  090%=      5-min Rain = 0
KWE2 140851Z 35008KT 02/01 A3013 RMK A01 T00190005  RH  091%=      5-min Rain = 0
KWE2 140852Z 35008KT 02/01 A3013 RMK A01 T00180005  RH  091%=      5-min Rain = 0
KWE2 140853Z 34007KT 02/01 A3014 RMK A01 T00170005  RH  091%=      5-min Rain = 0
KWE2 140854Z 35007KT 02/01 A3014 RMK A01 T00170005  RH  092%=      5-min Rain = 0
KWE2 140855Z 35007KT 02/01 A3014 RMK A01 T00170005  RH  092%=      5-min Rain = 0
KWE2 140856Z 35007KT 02/00 A3014 RMK A01 T00170004  RH  091%=      5-min Rain = 0
KWE2 140857Z 36008KT 02/01 A3014 RMK A01 T00170005  RH  091%=      5-min Rain = 0
KWE2 140858Z 35009KT 02/01 A3014 RMK A01 T00180005  RH  091%=      5-min Rain = 0
KWE2 140859Z 35008KT 02/00 A3014 RMK A01 T00190004  RH  090%=      5-min Rain = 0
KWE2 140900Z 35009KT 02/00 A3014 RMK A01 T00190004  RH  090%=      5-min Rain = 0
KWE2 140901Z 35009KT 02/00 A3014 RMK A01 T00190004  RH  090%=      5-min Rain = 0
KWE2 140902Z 35009KT 02/00 A3014 RMK A01 T00180004  RH  090%=      5-min Rain = 0
KWE2 140903Z 35009KT 02/00 A3014 RMK A01 T00190004  RH  090%=      5-min Rain = 0
KWE2 140904Z 35009KT 02/00 A3014 RMK A01 T00190003  RH  089%=      5-min Rain = 0
KWE2 140905Z 35009KT 02/00 A3014 RMK A01 T00190003  RH  089%=      5-min Rain = 0
KWE2 140906Z 35009KT 02/00 A3014 RMK A01 T00190003  RH  089%=      5-min Rain = 0
KWE2 140907Z 35008KT 02/00 A3014 RMK A01 T00190003  RH  089%=      5-min Rain = 0
KWE2 140908Z 35008KT 02/00 A3014 RMK A01 T00190003  RH  089%=      5-min Rain = 0
KWE2 140909Z 35009KT 02/00 A3014 RMK A01 T00180003  RH  089%=      5-min Rain = 0
KWE2 140910Z 36009KT 02/00 A3014 RMK A01 T00180002  RH  089%=      5-min Rain = 0
KWE2 140911Z 35009KT 02/00 A3014 RMK A01 T00180002  RH  089%=      5-min Rain = 0
KWE2 140912Z 35009KT 02/00 A3014 RMK A01 T00180002  RH  089%=      5-min Rain = 0
KWE2 140913Z 36009KT 02/00 A3014 RMK A01 T00180002  RH  089%=      5-min Rain = 0
KWE2 140914Z 36009KT 02/00 A3014 RMK A01 T00180002  RH  089%=      5-min Rain = 0
KWE2 140915Z 36009KT 02/00 A3014 RMK A01 T00180002  RH  089%=      5-min Rain = 0
KWE2 140916Z 36009KT 02/00 A3014 RMK A01 T00180002  RH  089%=      5-min Rain = 0
KWE2 140917Z 36009KT 02/00 A3014 RMK A01 T00180001  RH  089%=      5-min Rain = 0
KWE2 140918Z 00009KT 02/00 A3014 RMK A01 T00180002  RH  089%=      5-min Rain = 0
KWE2 140919Z 00010KT 02/00 A3014 RMK A01 T00180001  RH  089%=      5-min Rain = 0
KWE2 140920Z 00009KT 02/00 A3014 RMK A01 T00180001  RH  089%=      5-min Rain = 0
KWE2 140921Z 36009KT 02/00 A3014 RMK A01 T00180001  RH  089%=      5-min Rain = 0
KWE2 140922Z 00010KT 02/00 A3014 RMK A01 T00180001  RH  088%=      5-min Rain = 0
KWE2 140923Z 00009KT 02/00 A3014 RMK A01 T00190001  RH  088%=      5-min Rain = 0
KWE2 140924Z 00009KT 02/00 A3014 RMK A01 T00190001  RH  087%=      5-min Rain = 0
KWE2 140925Z 36009KT 02/00 A3014 RMK A01 T00200000  RH  087%=      5-min Rain = 0
KWE2 140926Z 00010KT 02/00 A3015 RMK A01 T00200000  RH  087%=      5-min Rain = 0
KWE2 140927Z 01010KT 02/00 A3015 RMK A01 T00200000  RH  087%=      5-min Rain = 0
KWE2 140928Z 00009KT 02/00 A3015 RMK A01 T00210000  RH  086%=      5-min Rain = 0
KWE2 140929Z 00009KT 02/00 A3015 RMK A01 T00210000  RH  086%=      5-min Rain = 0
KWE2 140930Z 00010KT 02/00 A3014 RMK A01 T00220000  RH  086%=      5-min Rain = 0
KWE2 140931Z 01010KT 02/00 A3014 RMK A01 T00220000  RH  085%=      5-min Rain = 0
KWE2 140932Z 00010KT 02/00 A3014 RMK A01 T002200-0  RH  085%=      5-min Rain = 0
KWE2 140933Z 01010KT 02/00 A3015 RMK A01 T002200-0  RH  085%=      5-min Rain = 0
KWE2 140934Z 00010KT 02/00 A3015 RMK A01 T002200-0  RH  085%=      5-min Rain = 0
KWE2 140935Z 00009KT 02/M00 A3015 RMK A01 T00221001  RH  085%=      5-min Rain = 0
KWE2 140936Z 01010KT 02/00 A3015 RMK A01 T002200-0  RH  085%=      5-min Rain = 0
KWE2 140937Z 00010KT 02/M00 A3015 RMK A01 T00221001  RH  085%=      5-min Rain = 0
KWE2 140938Z 36010KT 02/M00 A3015 RMK A01 T00221001  RH  085%=      5-min Rain = 0
KWE2 140939Z 00009KT 02/M00 A3015 RMK A01 T00221001  RH  085%=      5-min Rain = 0
KWE2 140940Z 00011KT 02/00 A3015 RMK A01 T002300-0  RH  085%=      5-min Rain = 0
KWE2 140941Z 00011KT 02/M00 A3015 RMK A01 T00221001  RH  085%=      5-min Rain = 0
KWE2 140942Z 00010KT 02/M00 A3015 RMK A01 T00221001  RH  085%=      5-min Rain = 0
KWE2 140943Z 01009KT 02/M00 A3015 RMK A01 T00221001  RH  085%=      5-min Rain = 0
KWE2 140944Z 01009KT 02/M00 A3015 RMK A01 T00221001  RH  085%=      5-min Rain = 0
KWE2 140945Z 01010KT 02/M00 A3015 RMK A01 T00221001  RH  085%=      5-min Rain = 0
KWE2 140946Z 00010KT 02/M00 A3015 RMK A01 T00221002  RH  084%=      5-min Rain = 0
KWE2 140947Z 01009KT 02/M00 A3015 RMK A01 T00221002  RH  084%=      5-min Rain = 0
KWE2 140948Z 01009KT 02/M00 A3015 RMK A01 T00221002  RH  084%=      5-min Rain = 0
KWE2 140949Z 01010KT 02/M00 A3015 RMK A01 T00221002  RH  084%=      5-min Rain = 0
KWE2 140950Z 01010KT 02/M00 A3015 RMK A01 T00221002  RH  084%=      5-min Rain = 0
KWE2 140951Z 01010KT 02/M00 A3015 RMK A01 T00231002  RH  084%=      5-min Rain = 0
KWE2 140952Z 01010KT 02/M00 A3015 RMK A01 T00231002  RH  084%=      5-min Rain = 0
KWE2 140953Z 01010KT 02/M00 A3015 RMK A01 T00231002  RH  084%=      5-min Rain = 0
KWE2 140954Z 01011KT 02/M00 A3015 RMK A01 T00231002  RH  084%=      5-min Rain = 0
KWE2 140955Z 01011KT 02/M00 A3015 RMK A01 T00231002  RH  083%=      5-min Rain = 0
KWE2 140956Z 01011KT 02/M00 A3015 RMK A01 T00231003  RH  083%=      5-min Rain = 0
KWE2 140957Z 01011KT 02/M00 A3015 RMK A01 T00231003  RH  083%=      5-min Rain = 0
KWE2 140958Z 01010KT 02/M00 A3016 RMK A01 T00231002  RH  083%=      5-min Rain = 0
KWE2 140959Z 01010KT 02/M00 A3016 RMK A01 T00231002  RH  083%=      5-min Rain = 0
KWE2 141000Z 01010KT 02/M00 A3016 RMK A01 T00231002  RH  083%=      5-min Rain = 0
KWE2 141001Z 01009KT 02/M00 A3016 RMK A01 T00231002  RH  083%=      5-min Rain = 0
KWE2 141002Z 01010KT 02/M00 A3016 RMK A01 T00231002  RH  083%=      5-min Rain = 0
KWE2 141003Z 01011KT 02/M00 A3016 RMK A01 T00231002  RH  084%=      5-min Rain = 0
KWE2 141004Z 01011KT 02/M00 A3016 RMK A01 T00231002  RH  083%=      5-min Rain = 0
KWE2 141005Z 01009KT 02/M00 A3016 RMK A01 T00231003  RH  083%=      5-min Rain = 0
KWE2 141006Z 01011KT 02/M00 A3016 RMK A01 T00231003  RH  083%=      5-min Rain = 0
KWE2 141007Z 01010KT 02/M00 A3016 RMK A01 T00231003  RH  083%=      5-min Rain = 0
KWE2 141008Z 01009KT 02/M00 A3016 RMK A01 T00241003  RH  083%=      5-min Rain = 0
KWE2 141009Z 01010KT 02/M00 A3016 RMK A01 T00231003  RH  083%=      5-min Rain = 0
KWE2 141010Z 01010KT 02/M00 A3016 RMK A01 T00231003  RH  083%=      5-min Rain = 0
KWE2 141011Z 01010KT 02/M00 A3016 RMK A01 T00231003  RH  083%=      5-min Rain = 0
KWE2 141012Z 01009KT 02/M00 A3016 RMK A01 T00231003  RH  083%=      5-min Rain = 0
KWE2 141013Z 01010KT 02/M00 A3016 RMK A01 T00231003  RH  083%=      5-min Rain = 0
KWE2 141014Z 01010KT 02/M00 A3016 RMK A01 T00231003  RH  083%=      5-min Rain = 0
KWE2 141015Z 01011KT 02/M00 A3016 RMK A01 T00231003  RH  083%=      5-min Rain = 0
KWE2 141016Z 01010KT 02/M00 A3016 RMK A01 T00231003  RH  083%=      5-min Rain = 0
KWE2 141017Z 01010KT 02/M00 A3016 RMK A01 T00231003  RH  083%=      5-min Rain = 0
KWE2 141018Z 01010KT 02/M00 A3016 RMK A01 T00231003  RH  083%=      5-min Rain = 0
KWE2 141019Z 01009KT 02/M00 A3016 RMK A01 T00221003  RH  083%=      5-min Rain = 0
KWE2 141020Z 01009KT 02/M00 A3016 RMK A01 T00221003  RH  084%=      5-min Rain = 0
KWE2 141021Z 01010KT 02/M00 A3016 RMK A01 T00211003  RH  084%=      5-min Rain = 0
KWE2 141022Z 01010KT 02/M00 A3016 RMK A01 T00211003  RH  084%=      5-min Rain = 0
KWE2 141023Z 01010KT 02/M00 A3016 RMK A01 T00211003  RH  084%=      5-min Rain = 0
KWE2 141024Z 01010KT 02/M00 A3016 RMK A01 T00211003  RH  084%=      5-min Rain = 0
KWE2 141025Z 02009KT 02/M00 A3016 RMK A01 T00211004  RH  084%=      5-min Rain = 0
KWE2 141026Z 02009KT 02/M00 A3016 RMK A01 T00221003  RH  084%=      5-min Rain = 0
KWE2 141027Z 01010KT 02/M00 A3016 RMK A01 T00221003  RH  083%=      5-min Rain = 0
KWE2 141028Z 01010KT 02/M00 A3016 RMK A01 T00221003  RH  083%=      5-min Rain = 0
KWE2 141029Z 01010KT 02/M00 A3016 RMK A01 T00221003  RH  083%=      5-min Rain = 0
KWE2 141030Z 01010KT 02/M00 A3016 RMK A01 T00221004  RH  083%=      5-min Rain = 0
KWE2 141031Z 01009KT 02/M00 A3016 RMK A01 T00221003  RH  083%=      5-min Rain = 0
KWE2 141032Z 01009KT 02/M00 A3016 RMK A01 T00211003  RH  084%=      5-min Rain = 0
KWE2 141033Z 02008KT 02/M00 A3016 RMK A01 T00211003  RH  084%=      5-min Rain = 0
KWE2 141034Z 01009KT 02/M00 A3016 RMK A01 T00221003  RH  084%=      5-min Rain = 0
KWE2 141035Z 01008KT 02/M00 A3016 RMK A01 T00211003  RH  084%=      5-min Rain = 0
KWE2 141036Z 01008KT 02/M00 A3016 RMK A01 T00211003  RH  084%=      5-min Rain = 0
KWE2 141037Z 01008KT 02/M00 A3016 RMK A01 T00211003  RH  084%=      5-min Rain = 0
KWE2 141038Z 01009KT 02/M00 A3017 RMK A01 T00201004  RH  084%=      5-min Rain = 0
KWE2 141039Z 01009KT 02/M00 A3017 RMK A01 T00201004  RH  084%=      5-min Rain = 0
KWE2 141040Z 01008KT 02/M00 A3017 RMK A01 T00211003  RH  084%=      5-min Rain = 0
KWE2 141041Z 01008KT 02/M00 A3017 RMK A01 T00211003  RH  084%=      5-min Rain = 0
KWE2 141042Z 00008KT 02/M00 A3017 RMK A01 T00201004  RH  084%=      5-min Rain = 0
KWE2 141043Z 01008KT 02/M00 A3017 RMK A01 T00201004  RH  085%=      5-min Rain = 0
KWE2 141044Z 01008KT 02/M00 A3017 RMK A01 T00191003  RH  085%=      5-min Rain = 0
KWE2 141045Z 00008KT 02/M00 A3017 RMK A01 T00191004  RH  085%=      5-min Rain = 0
KWE2 141046Z 00008KT 02/M00 A3017 RMK A01 T00191004  RH  085%=      5-min Rain = 0
KWE2 141047Z 01008KT 02/M00 A3017 RMK A01 T00181004  RH  086%=      5-min Rain = 0
KWE2 141048Z 01008KT 02/M00 A3017 RMK A01 T00181004  RH  086%=      5-min Rain = 0
KWE2 141049Z 01008KT 02/M00 A3017 RMK A01 T00171004  RH  086%=      5-min Rain = 0
KWE2 141050Z 01008KT 02/M00 A3017 RMK A01 T00171004  RH  086%=      5-min Rain = 0
KWE2 141051Z 01007KT 02/M00 A3018 RMK A01 T00171004  RH  086%=      5-min Rain = 0
KWE2 141052Z 01007KT 02/M00 A3018 RMK A01 T00181004  RH  086%=      5-min Rain = 0
KWE2 141053Z 01008KT 02/M00 A3018 RMK A01 T00181004  RH  086%=      5-min Rain = 0
KWE2 141054Z 01008KT 02/M00 A3018 RMK A01 T00181004  RH  086%=      5-min Rain = 0
KWE2 141055Z 01008KT 02/M00 A3018 RMK A01 T00181004  RH  085%=      5-min Rain = 0
KWE2 141056Z 01008KT 02/M00 A3018 RMK A01 T00181004  RH  085%=      5-min Rain = 0
KWE2 141057Z 01008KT 02/M00 A3018 RMK A01 T00181004  RH  085%=      5-min Rain = 0
KWE2 141058Z 01008KT 02/M00 A3018 RMK A01 T00181004  RH  085%=      5-min Rain = 0
KWE2 141059Z 01007KT 02/M00 A3018 RMK A01 T00181004  RH  085%=      5-min Rain = 0
KWE2 141100Z 01008KT 02/M00 A3018 RMK A01 T00181004  RH  085%=      5-min Rain = 0
KWE2 141101Z 01007KT 02/M00 A3018 RMK A01 T00181004  RH  085%=      5-min Rain = 0
KWE2 141102Z 01007KT 02/M00 A3018 RMK A01 T00181004  RH  085%=      5-min Rain = 0
KWE2 141103Z 02007KT 02/M00 A3018 RMK A01 T00181004  RH  085%=      5-min Rain = 0
KWE2 141104Z 02007KT 02/M00 A3018 RMK A01 T00191004  RH  085%=      5-min Rain = 0
KWE2 141105Z 01007KT 02/M00 A3018 RMK A01 T00191004  RH  085%=      5-min Rain = 0
KWE2 141106Z 01007KT 02/M00 A3018 RMK A01 T00191004  RH  084%=      5-min Rain = 0
KWE2 141107Z 01007KT 02/M00 A3018 RMK A01 T00191004  RH  084%=      5-min Rain = 0
KWE2 141108Z 02008KT 02/M00 A3018 RMK A01 T00201004  RH  084%=      5-min Rain = 0
KWE2 141109Z 01008KT 02/M00 A3018 RMK A01 T00211004  RH  084%=      5-min Rain = 0
KWE2 141110Z 01007KT 02/M00 A3018 RMK A01 T00211004  RH  083%=      5-min Rain = 0
KWE2 141111Z 01008KT 02/M00 A3018 RMK A01 T00211004  RH  083%=      5-min Rain = 0
KWE2 141112Z 01008KT 02/M00 A3019 RMK A01 T00211004  RH  083%=      5-min Rain = 0
KWE2 141113Z 01008KT 02/M00 A3019 RMK A01 T00211004  RH  083%=      5-min Rain = 0
KWE2 141114Z 01008KT 02/M01 A3019 RMK A01 T00211005  RH  083%=      5-min Rain = 0
KWE2 141115Z 01008KT 02/M01 A3019 RMK A01 T00211005  RH  083%=      5-min Rain = 0
KWE2 141116Z 01007KT 02/M01 A3019 RMK A01 T00221005  RH  083%=      5-min Rain = 0
KWE2 141117Z 01007KT 02/M01 A3019 RMK A01 T00211005  RH  083%=      5-min Rain = 0
KWE2 141118Z 01008KT 02/M01 A3019 RMK A01 T00211005  RH  083%=      5-min Rain = 0
KWE2 141119Z 01008KT 02/M01 A3019 RMK A01 T00211006  RH  082%=      5-min Rain = 0
KWE2 141120Z 02008KT 02/M01 A3019 RMK A01 T00221006  RH  082%=      5-min Rain = 0
KWE2 141121Z 02008KT 02/M01 A3019 RMK A01 T00231006  RH  081%=      5-min Rain = 0
KWE2 141122Z 01008KT 02/M01 A3019 RMK A01 T00231006  RH  081%=      5-min Rain = 0
KWE2 141123Z 02008KT 02/M01 A3019 RMK A01 T00241006  RH  080%=      5-min Rain = 0
KWE2 141124Z 02008KT 03/M01 A3019 RMK A01 T00251006  RH  080%=      5-min Rain = 0
KWE2 141125Z 02008KT 03/M01 A3019 RMK A01 T00251007  RH  079%=      5-min Rain = 0
KWE2 141126Z 02009KT 03/M01 A3019 RMK A01 T00261007  RH  079%=      5-min Rain = 0
KWE2 141127Z 02009KT 03/M01 A3019 RMK A01 T00271007  RH  078%=      5-min Rain = 0
KWE2 141128Z 02010KT 03/M01 A3019 RMK A01 T00281008  RH  077%=      5-min Rain = 0
KWE2 141129Z 02009KT 03/M01 A3019 RMK A01 T00291008  RH  077%=      5-min Rain = 0
KWE2 141130Z 02009KT 03/M01 A3019 RMK A01 T00291008  RH  076%=      5-min Rain = 0
KWE2 141131Z 02009KT 03/M01 A3019 RMK A01 T00291008  RH  076%=      5-min Rain = 0
KWE2 141132Z 02010KT 03/M01 A3019 RMK A01 T00291009  RH  076%=      5-min Rain = 0
KWE2 141133Z 02009KT 03/M01 A302 RMK A01 T00291009  RH  076%=      5-min Rain = 0
KWE2 141134Z 02009KT 03/M01 A302 RMK A01 T00291009  RH  076%=      5-min Rain = 0
KWE2 141135Z 02009KT 03/M01 A302 RMK A01 T00291009  RH  076%=      5-min Rain = 0
KWE2 141136Z 02008KT 03/M01 A302 RMK A01 T00291009  RH  076%=      5-min Rain = 0
KWE2 141137Z 02009KT 03/M01 A302 RMK A01 T00291009  RH  076%=      5-min Rain = 0
KWE2 141138Z 02009KT 03/M01 A302 RMK A01 T00281009  RH  076%=      5-min Rain = 0
KWE2 141139Z 02009KT 03/M01 A302 RMK A01 T00281009  RH  076%=      5-min Rain = 0
KWE2 141140Z 02009KT 03/M01 A302 RMK A01 T00281009  RH  076%=      5-min Rain = 0
KWE2 141141Z 02010KT 03/M01 A302 RMK A01 T00281010  RH  076%=      5-min Rain = 0
KWE2 141142Z 02009KT 03/M01 A302 RMK A01 T00281010  RH  076%=      5-min Rain = 0
KWE2 141143Z 03009KT 03/M01 A302 RMK A01 T00281010  RH  076%=      5-min Rain = 0
KWE2 141144Z 03009KT 03/M01 A302 RMK A01 T00281010  RH  076%=      5-min Rain = 0
KWE2 141145Z 02009KT 03/M01 A302 RMK A01 T00281010  RH  076%=      5-min Rain = 0
KWE2 141146Z 03009KT 03/M01 A302 RMK A01 T00271010  RH  076%=      5-min Rain = 0
KWE2 141147Z 02010KT 03/M01 A302 RMK A01 T00271011  RH  076%=      5-min Rain = 0
KWE2 141148Z 03010KT 03/M01 A302 RMK A01 T00281011  RH  075%=      5-min Rain = 0
KWE2 141149Z 02009KT 03/M01 A302 RMK A01 T00281011  RH  075%=      5-min Rain = 0
KWE2 141150Z 02010KT 03/M01 A302 RMK A01 T00281011  RH  076%=      5-min Rain = 0
KWE2 141151Z 02010KT 03/M01 A302 RMK A01 T00271011  RH  076%=      5-min Rain = 0
KWE2 141152Z 02010KT 03/M01 A302 RMK A01 T00271011  RH  076%=      5-min Rain = 0
KWE2 141153Z 02010KT 03/M01 A302 RMK A01 T00271011  RH  076%=      5-min Rain = 0
KWE2 141154Z 02009KT 03/M01 A302 RMK A01 T00271011  RH  076%=      5-min Rain = 0
KWE2 141155Z 03010KT 03/M01 A302 RMK A01 T00261011  RH  076%=      5-min Rain = 0
KWE2 141156Z 02010KT 03/M01 A302 RMK A01 T00261011  RH  076%=      5-min Rain = 0
KWE2 141157Z 03009KT 03/M01 A302 RMK A01 T00251011  RH  077%=      5-min Rain = 0
KWE2 141158Z 02010KT 03/M01 A302 RMK A01 T00261012  RH  077%=      5-min Rain = 0
KWE2 141159Z 02009KT 03/M01 A3021 RMK A01 T00261011  RH  076%=      5-min Rain = 0
KWE2 141200Z 02009KT 03/M01 A3021 RMK A01 T00251012  RH  077%=      5-min Rain = 0
KWE2 141201Z 03009KT 03/M01 A3021 RMK A01 T00251012  RH  077%=      5-min Rain = 0
KWE2 141202Z 02009KT 03/M01 A3021 RMK A01 T00251012  RH  076%=      5-min Rain = 0
KWE2 141203Z 02009KT 03/M01 A3021 RMK A01 T00261012  RH  076%=      5-min Rain = 0
KWE2 141204Z 02008KT 03/M01 A3021 RMK A01 T00251012  RH  076%=      5-min Rain = 0
KWE2 141205Z 02010KT 03/M01 A3021 RMK A01 T00251013  RH  076%=      5-min Rain = 0
KWE2 141206Z 02009KT 03/M01 A3021 RMK A01 T00251013  RH  076%=      5-min Rain = 0
KWE2 141207Z 03009KT 03/M01 A3021 RMK A01 T00251013  RH  076%=      5-min Rain = 0
KWE2 141208Z 03009KT 03/M01 A3021 RMK A01 T00251013  RH  076%=      5-min Rain = 0
KWE2 141209Z 03010KT 02/M01 A3021 RMK A01 T00241013  RH  076%=      5-min Rain = 0
KWE2 141210Z 03010KT 02/M01 A3021 RMK A01 T00241013  RH  076%=      5-min Rain = 0
KWE2 141211Z 03010KT 02/M01 A3021 RMK A01 T00241014  RH  076%=      5-min Rain = 0
KWE2 141212Z 03009KT 03/M01 A3021 RMK A01 T00251014  RH  076%=      5-min Rain = 0
KWE2 141213Z 03010KT 03/M01 A3021 RMK A01 T00251014  RH  076%=      5-min Rain = 0
KWE2 141214Z 03010KT 02/M01 A3021 RMK A01 T00241014  RH  076%=      5-min Rain = 0
KWE2 141215Z 03011KT 02/M01 A3021 RMK A01 T00241014  RH  076%=      5-min Rain = 0
KWE2 141216Z 03010KT 02/M01 A3021 RMK A01 T00241014  RH  076%=      5-min Rain = 0
KWE2 141217Z 03010KT 02/M01 A3021 RMK A01 T00241014  RH  076%=      5-min Rain = 0
KWE2 141218Z 03010KT 02/M02 A3021 RMK A01 T00241015  RH  076%=      5-min Rain = 0
KWE2 141219Z 03010KT 02/M02 A3021 RMK A01 T00241015  RH  075%=      5-min Rain = 0
KWE2 141220Z 04011KT 02/M02 A3021 RMK A01 T00241015  RH  075%=      5-min Rain = 0
KWE2 141221Z 03011KT 02/M02 A3021 RMK A01 T00241015  RH  075%=      5-min Rain = 0
KWE2 141222Z 03010KT 03/M02 A3021 RMK A01 T00251015  RH  075%=      5-min Rain = 0
KWE2 141223Z 03011KT 03/M02 A3021 RMK A01 T00251016  RH  075%=      5-min Rain = 0
KWE2 141224Z 03010KT 03/M02 A3022 RMK A01 T00251015  RH  075%=      5-min Rain = 0
KWE2 141225Z 03010KT 03/M02 A3022 RMK A01 T00251015  RH  075%=      5-min Rain = 0
KWE2 141226Z 03011KT 02/M02 A3022 RMK A01 T00241015  RH  075%=      5-min Rain = 0
KWE2 141227Z 03011KT 02/M02 A3022 RMK A01 T00241015  RH  075%=      5-min Rain = 0
KWE2 141228Z 03010KT 02/M02 A3022 RMK A01 T00241016  RH  075%=      5-min Rain = 0
KWE2 141229Z 03011KT 03/M02 A3022 RMK A01 T00251016  RH  075%=      5-min Rain = 0
KWE2 141230Z 03009KT 03/M02 A3022 RMK A01 T00251016  RH  075%=      5-min Rain = 0
KWE2 141231Z 03010KT 03/M02 A3022 RMK A01 T00251016  RH  075%=      5-min Rain = 0
KWE2 141232Z 03010KT 03/M02 A3022 RMK A01 T00251016  RH  075%=      5-min Rain = 0
KWE2 141233Z 03011KT 03/M02 A3022 RMK A01 T00251016  RH  074%=      5-min Rain = 0
KWE2 141234Z 03011KT 03/M02 A3022 RMK A01 T00251016  RH  074%=      5-min Rain = 0
KWE2 141235Z 02010KT 03/M02 A3022 RMK A01 T00261016  RH  074%=      5-min Rain = 0
KWE2 141236Z 03011KT 03/M02 A3022 RMK A01 T00261016  RH  074%=      5-min Rain = 0
KWE2 141237Z 02010KT 03/M02 A3023 RMK A01 T00261016  RH  074%=      5-min Rain = 0
KWE2 141238Z 02011KT 03/M02 A3023 RMK A01 T00261017  RH  074%=      5-min Rain = 0
KWE2 141239Z 02011KT 03/M02 A3023 RMK A01 T00261017  RH  074%=      5-min Rain = 0
KWE2 141240Z 02010KT 03/M02 A3023 RMK A01 T00261017  RH  074%=      5-min Rain = 0
KWE2 141241Z 02010KT 03/M02 A3023 RMK A01 T00261017  RH  073%=      5-min Rain = 0
KWE2 141242Z 02010KT 03/M02 A3023 RMK A01 T00261017  RH  073%=      5-min Rain = 0
KWE2 141243Z 02010KT 03/M02 A3023 RMK A01 T00261018  RH  073%=      5-min Rain = 0
KWE2 141244Z 02010KT 03/M02 A3023 RMK A01 T00261018  RH  073%=      5-min Rain = 0
KWE2 141245Z 02009KT 03/M02 A3023 RMK A01 T00261018  RH  073%=      5-min Rain = 0
KWE2 141246Z 02010KT 03/M02 A3023 RMK A01 T00261018  RH  073%=      5-min Rain = 0
KWE2 141247Z 02009KT 03/M02 A3024 RMK A01 T00261018  RH  073%=      5-min Rain = 0
KWE2 141248Z 02010KT 03/M02 A3024 RMK A01 T00261018  RH  073%=      5-min Rain = 0
KWE2 141249Z 02010KT 03/M02 A3024 RMK A01 T00261018  RH  073%=      5-min Rain = 0
KWE2 141250Z 02009KT 03/M02 A3024 RMK A01 T00261019  RH  072%=      5-min Rain = 0
KWE2 141251Z 02011KT 03/M02 A3024 RMK A01 T00271018  RH  072%=      5-min Rain = 0
KWE2 141252Z 02011KT 03/M02 A3024 RMK A01 T00271019  RH  072%=      5-min Rain = 0
KWE2 141253Z 02010KT 03/M02 A3024 RMK A01 T00271019  RH  072%=      5-min Rain = 0
KWE2 141254Z 02010KT 03/M02 A3024 RMK A01 T00271019  RH  072%=      5-min Rain = 0
KWE2 141255Z 03012KT 03/M02 A3024 RMK A01 T00271019  RH  072%=      5-min Rain = 0
KWE2 141256Z 03011KT 03/M02 A3025 RMK A01 T00271020  RH  071%=      5-min Rain = 0
KWE2 141257Z 03011KT 03/M02 A3025 RMK A01 T00271020  RH  071%=      5-min Rain = 0
KWE2 141258Z 03012KT 03/M02 A3025 RMK A01 T00281020  RH  071%=      5-min Rain = 0
KWE2 141259Z 03013KT 03/M02 A3025 RMK A01 T00281020  RH  071%=      5-min Rain = 0
KWE2 141300Z 02013G18KT 03/M02 A3025 RMK A01 T00271021  RH  071%=      5-min Rain = 0
KWE2 141301Z 03013KT 03/M02 A3025 RMK A01 T00281021  RH  070%=      5-min Rain = 0
KWE2 141302Z 03013KT 03/M02 A3025 RMK A01 T00281021  RH  070%=      5-min Rain = 0
KWE2 141303Z 03013KT 03/M02 A3025 RMK A01 T00281021  RH  070%=      5-min Rain = 0
KWE2 141304Z 02010KT 03/M02 A3025 RMK A01 T00281021  RH  070%=      5-min Rain = 0
KWE2 141305Z 03012KT 03/M02 A3025 RMK A01 T00271021  RH  071%=      5-min Rain = 0
KWE2 141306Z 02010KT 03/M02 A3025 RMK A01 T00261021  RH  071%=      5-min Rain = 0
KWE2 141307Z 03012KT 03/M02 A3025 RMK A01 T00261020  RH  071%=      5-min Rain = 0
KWE2 141308Z 03012KT 03/M02 A3025 RMK A01 T00261021  RH  071%=      5-min Rain = 0
KWE2 141309Z 03012KT 03/M02 A3025 RMK A01 T00261022  RH  071%=      5-min Rain = 0
KWE2 141310Z 03013KT 03/M02 A3025 RMK A01 T00271021  RH  070%=      5-min Rain = 0
KWE2 141311Z 02014KT 03/M02 A3026 RMK A01 T00271021  RH  071%=      5-min Rain = 0
KWE2 141312Z 03013KT 03/M02 A3026 RMK A01 T00271022  RH  070%=      5-min Rain = 0
KWE2 141313Z 03014KT 03/M02 A3026 RMK A01 T00271022  RH  070%=      5-min Rain = 0
KWE2 141314Z 03014KT 03/M02 A3026 RMK A01 T00271022  RH  070%=      5-min Rain = 0
KWE2 141315Z 03013KT 03/M02 A3026 RMK A01 T00271022  RH  070%=      5-min Rain = 0
KWE2 141316Z 03014KT 03/M02 A3026 RMK A01 T00271023  RH  070%=      5-min Rain = 0
KWE2 141317Z 03013KT 03/M02 A3026 RMK A01 T00281022  RH  069%=      5-min Rain = 0
KWE2 141318Z 03014KT 03/M02 A3026 RMK A01 T00271023  RH  070%=      5-min Rain = 0
KWE2 141319Z 03013KT 03/M02 A3026 RMK A01 T00271022  RH  070%=      5-min Rain = 0
KWE2 141320Z 03013KT 03/M02 A3026 RMK A01 T00271022  RH  070%=      5-min Rain = 0
KWE2 141321Z 03013KT 03/M02 A3026 RMK A01 T00271023  RH  070%=      5-min Rain = 0
KWE2 141322Z 03013KT 03/M02 A3026 RMK A01 T00271023  RH  070%=      5-min Rain = 0
KWE2 141323Z 03012KT 03/M02 A3026 RMK A01 T00271022  RH  070%=      5-min Rain = 0
KWE2 141324Z 03012KT 03/M02 A3026 RMK A01 T00271023  RH  070%=      5-min Rain = 0
KWE2 141325Z 03012KT 03/M02 A3026 RMK A01 T00261023  RH  070%=      5-min Rain = 0
KWE2 141326Z 03012KT 03/M02 A3026 RMK A01 T00271023  RH  070%=      5-min Rain = 0
KWE2 141327Z 03012KT 03/M02 A3026 RMK A01 T00261023  RH  070%=      5-min Rain = 0
KWE2 141328Z 03012KT 03/M02 A3026 RMK A01 T00261023  RH  070%=      5-min Rain = 0
KWE2 141329Z 03012KT 03/M02 A3026 RMK A01 T00261023  RH  070%=      5-min Rain = 0
KWE2 141330Z 03012KT 03/M02 A3027 RMK A01 T00261024  RH  070%=      5-min Rain = 0
KWE2 141331Z 03013KT 03/M02 A3027 RMK A01 T00271024  RH  069%=      5-min Rain = 0
KWE2 141332Z 03012KT 03/M02 A3027 RMK A01 T00271024  RH  069%=      5-min Rain = 0
KWE2 141333Z 03012KT 03/M03 A3027 RMK A01 T00271025  RH  069%=      5-min Rain = 0
KWE2 141334Z 03011KT 03/M02 A3027 RMK A01 T00271024  RH  069%=      5-min Rain = 0
KWE2 141335Z 03012KT 03/M02 A3027 RMK A01 T00271024  RH  069%=      5-min Rain = 0
KWE2 141336Z 03011KT 03/M02 A3027 RMK A01 T00271024  RH  069%=      5-min Rain = 0
KWE2 141337Z 03011KT 03/M02 A3027 RMK A01 T00271024  RH  069%=      5-min Rain = 0
KWE2 141338Z 02012KT 03/M02 A3028 RMK A01 T00271024  RH  069%=      5-min Rain = 0
KWE2 141339Z 03011KT 03/M03 A3028 RMK A01 T00271025  RH  069%=      5-min Rain = 0
KWE2 141340Z 03012KT 03/M02 A3028 RMK A01 T00271024  RH  069%=      5-min Rain = 0
KWE2 141341Z 02011KT 03/M03 A3028 RMK A01 T00271025  RH  069%=      5-min Rain = 0
KWE2 141342Z 03012KT 03/M03 A3028 RMK A01 T00281025  RH  068%=      5-min Rain = 0
KWE2 141343Z 03011KT 03/M03 A3028 RMK A01 T00281025  RH  068%=      5-min Rain = 0
KWE2 141344Z 03012KT 03/M03 A3028 RMK A01 T00281025  RH  068%=      5-min Rain = 0
KWE2 141345Z 03011G16KT 03/M03 A3029 RMK A01 T00281025  RH  068%=      5-min Rain = 0
KWE2 141346Z 03012KT 03/M03 A3029 RMK A01 T00281025  RH  068%=      5-min Rain = 0
KWE2 141347Z 03011KT 03/M03 A3029 RMK A01 T00291025  RH  068%=      5-min Rain = 0
KWE2 141348Z 02013KT 03/M03 A3029 RMK A01 T00291025  RH  068%=      5-min Rain = 0
KWE2 141349Z 03011KT 03/M03 A3029 RMK A01 T00291025  RH  068%=      5-min Rain = 0
KWE2 141350Z 03011KT 03/M03 A3029 RMK A01 T00291025  RH  067%=      5-min Rain = 0
KWE2 141351Z 03012KT 03/M03 A3029 RMK A01 T00291025  RH  068%=      5-min Rain = 0
KWE2 141352Z 03011KT 03/M03 A3029 RMK A01 T00291025  RH  067%=      5-min Rain = 0
KWE2 141353Z 03012KT 03/M03 A3029 RMK A01 T00301025  RH  067%=      5-min Rain = 0
KWE2 141354Z 03011KT 03/M03 A3029 RMK A01 T00301025  RH  067%=      5-min Rain = 0
KWE2 141355Z 03011KT 03/M03 A303 RMK A01 T00311026  RH  066%=      5-min Rain = 0
KWE2 141356Z 03010G15KT 03/M03 A303 RMK A01 T00311026  RH  066%=      5-min Rain = 0
KWE2 141357Z 03012KT 03/M03 A303 RMK A01 T00311026  RH  066%=      5-min Rain = 0
KWE2 141358Z 03011KT 03/M03 A303 RMK A01 T00321026  RH  066%=      5-min Rain = 0
KWE2 141359Z 03010KT 03/M03 A303 RMK A01 T00321026  RH  066%=      5-min Rain = 0
KWE2 141400Z 03012KT 03/M03 A303 RMK A01 T00321025  RH  066%=      5-min Rain = 0
KWE2 141401Z 03012KT 03/M03 A303 RMK A01 T00321026  RH  066%=      5-min Rain = 0
KWE2 141402Z 03010KT 03/M03 A303 RMK A01 T00321026  RH  066%=      5-min Rain = 0
KWE2 141403Z 03010KT 03/M03 A303 RMK A01 T00321025  RH  066%=      5-min Rain = 0
KWE2 141404Z 03014KT 03/M03 A303 RMK A01 T00331026  RH  065%=      5-min Rain = 0
KWE2 141405Z 03011KT 03/M03 A303 RMK A01 T00331026  RH  065%=      5-min Rain = 0
KWE2 141406Z 03012KT 03/M03 A303 RMK A01 T00341026  RH  065%=      5-min Rain = 0
KWE2 141407Z 03011KT 03/M03 A303 RMK A01 T00341025  RH  065%=      5-min Rain = 0
KWE2 141408Z 03014KT 03/M03 A303 RMK A01 T00341026  RH  065%=      5-min Rain = 0
KWE2 141409Z 03012KT 04/M03 A303 RMK A01 T00351026  RH  064%=      5-min Rain = 0
KWE2 141410Z 03011KT 04/M03 A3031 RMK A01 T00351026  RH  064%=      5-min Rain = 0
KWE2 141411Z 03012KT 04/M03 A3031 RMK A01 T00351026  RH  064%=      5-min Rain = 0
KWE2 141412Z 03015KT 04/M03 A3031 RMK A01 T00351027  RH  064%=      5-min Rain = 0
KWE2 141413Z 03011KT 04/M03 A3031 RMK A01 T00361028  RH  063%=      5-min Rain = 0
KWE2 141414Z 03012KT 04/M03 A3031 RMK A01 T00361027  RH  063%=      5-min Rain = 0
KWE2 141415Z 03012KT 04/M03 A3031 RMK A01 T00371028  RH  063%=      5-min Rain = 0
KWE2 141416Z 03014KT 04/M03 A3031 RMK A01 T00371028  RH  063%=      5-min Rain = 0
KWE2 141417Z 03013G18KT 04/M03 A3031 RMK A01 T00381028  RH  062%=      5-min Rain = 0
KWE2 141418Z 03013KT 04/M03 A3031 RMK A01 T00371028  RH  062%=      5-min Rain = 0
KWE2 141419Z 03011KT 04/M03 A3031 RMK A01 T00381028  RH  062%=      5-min Rain = 0
KWE2 141420Z 04011KT 04/M03 A3031 RMK A01 T00381027  RH  062%=      5-min Rain = 0
KWE2 141421Z 04014KT 04/M03 A3031 RMK A01 T00381028  RH  062%=      5-min Rain = 0
KWE2 141422Z 03012KT 04/M03 A3032 RMK A01 T00381029  RH  062%=      5-min Rain = 0
KWE2 141423Z 03013KT 04/M03 A3032 RMK A01 T00391028  RH  062%=      5-min Rain = 0
KWE2 141424Z 04014KT 04/M03 A3032 RMK A01 T00391028  RH  062%=      5-min Rain = 0
KWE2 141425Z 04014KT 04/M03 A3032 RMK A01 T00391029  RH  061%=      5-min Rain = 0
KWE2 141426Z 04013KT 04/M03 A3032 RMK A01 T00401029  RH  061%=      5-min Rain = 0
KWE2 141427Z 04016KT 04/M03 A3032 RMK A01 T00401029  RH  061%=      5-min Rain = 0
KWE2 141428Z 04012KT 04/M03 A3032 RMK A01 T00401030  RH  060%=      5-min Rain = 0
KWE2 141429Z 04013KT 04/M03 A3032 RMK A01 T00401029  RH  061%=      5-min Rain = 0
KWE2 141430Z 04013KT 04/M03 A3032 RMK A01 T00411028  RH  061%=      5-min Rain = 0
KWE2 141431Z 04011KT 04/M03 A3032 RMK A01 T00411028  RH  061%=      5-min Rain = 0
KWE2 141432Z 04013KT 04/M03 A3033 RMK A01 T00411028  RH  061%=      5-min Rain = 0
KWE2 141433Z 04013KT 04/M03 A3033 RMK A01 T00411028  RH  061%=      5-min Rain = 0
KWE2 141434Z 05014KT 04/M03 A3033 RMK A01 T00421029  RH  060%=      5-min Rain = 0
KWE2 141435Z 04014KT 04/M03 A3033 RMK A01 T00421028  RH  060%=      5-min Rain = 0
KWE2 141436Z 04012KT 04/M03 A3033 RMK A01 T00421028  RH  060%=      5-min Rain = 0
KWE2 141437Z 04013G18KT 04/M03 A3033 RMK A01 T00431027  RH  060%=      5-min Rain = 0
KWE2 141438Z 04013KT 04/M03 A3033 RMK A01 T00431028  RH  060%=      5-min Rain = 0
KWE2 141439Z 04013KT 04/M03 A3033 RMK A01 T00431028  RH  060%=      5-min Rain = 0
KWE2 141440Z 04016KT 04/M03 A3033 RMK A01 T00431028  RH  060%=      5-min Rain = 0
KWE2 141441Z 04015KT 04/M03 A3033 RMK A01 T00441028  RH  060%=      5-min Rain = 0
KWE2 141442Z 04013KT 04/M03 A3033 RMK A01 T00441028  RH  060%=      5-min Rain = 0
KWE2 141443Z 04013KT 04/M03 A3033 RMK A01 T00441027  RH  060%=      5-min Rain = 0
KWE2 141444Z 04012KT 04/M03 A3034 RMK A01 T00441027  RH  060%=      5-min Rain = 0
KWE2 141445Z 04015KT 05/M03 A3034 RMK A01 T00451027  RH  060%=      5-min Rain = 0
KWE2 141446Z 04012G17KT 05/M03 A3034 RMK A01 T00451027  RH  060%=      5-min Rain = 0
KWE2 141447Z 04013KT 05/M03 A3034 RMK A01 T00451025  RH  060%=      5-min Rain = 0
KWE2 141448Z 05015KT 05/M03 A3034 RMK A01 T00461026  RH  060%=      5-min Rain = 0
KWE2 141449Z 05014KT 05/M03 A3034 RMK A01 T00461025  RH  060%=      5-min Rain = 0
KWE2 141450Z 04014G19KT 05/M02 A3034 RMK A01 T00461024  RH  060%=      5-min Rain = 0
KWE2 141451Z 04014KT 05/M03 A3034 RMK A01 T00461025  RH  060%=      5-min Rain = 0
KWE2 141452Z 04014KT 05/M02 A3034 RMK A01 T00461023  RH  061%=      5-min Rain = 0
KWE2 141453Z 05015KT 05/M02 A3034 RMK A01 T00471022  RH  061%=      5-min Rain = 0
KWE2 141454Z 05012KT 05/M02 A3034 RMK A01 T00481022  RH  061%=      5-min Rain = 0
KWE2 141455Z 05015G20KT 05/M02 A3034 RMK A01 T00491020  RH  061%=      5-min Rain = 0
KWE2 141456Z 05016KT 05/M02 A3034 RMK A01 T00491021  RH  061%=      5-min Rain = 0
KWE2 141457Z 04012KT 05/M02 A3034 RMK A01 T00491021  RH  061%=      5-min Rain = 0
KWE2 141458Z 05016KT 05/M02 A3034 RMK A01 T00501020  RH  061%=      5-min Rain = 0
KWE2 141459Z 05016KT 05/M02 A3034 RMK A01 T00501019  RH  061%=      5-min Rain = 0
KWE2 141500Z 05014KT 05/M02 A3034 RMK A01 T00501019  RH  061%=      5-min Rain = 0
KWE2 141501Z 05015G21KT 05/M02 A3035 RMK A01 T00511017  RH  062%=      5-min Rain = 0
KWE2 141502Z 05016G22KT 05/M02 A3035 RMK A01 T00511017  RH  062%=      5-min Rain = 0
KWE2 141503Z 05017KT 05/M02 A3035 RMK A01 T00511017  RH  062%=      5-min Rain = 0
KWE2 141504Z 05016G21KT 05/M02 A3034 RMK A01 T00501017  RH  062%=      5-min Rain = 0
KWE2 141505Z 05013KT 05/M02 A3035 RMK A01 T00501016  RH  062%=      5-min Rain = 0
KWE2 141506Z 04015KT 05/M02 A3035 RMK A01 T00511015  RH  062%=      5-min Rain = 0
KWE2 141507Z 05014G19KT 05/M01 A3035 RMK A01 T00521014  RH  062%=      5-min Rain = 0
KWE2 141508Z 04014G19KT 05/M01 A3035 RMK A01 T00521014  RH  062%=      5-min Rain = 0
KWE2 141509Z 05015KT 05/M02 A3035 RMK A01 T00521015  RH  062%=      5-min Rain = 0
KWE2 141510Z 04014G19KT 05/M01 A3035 RMK A01 T00521014  RH  062%=      5-min Rain = 0
KWE2 141511Z 04013KT 05/M01 A3035 RMK A01 T00531014  RH  062%=      5-min Rain = 0
KWE2 141512Z 04013KT 05/M01 A3035 RMK A01 T00541013  RH  062%=      5-min Rain = 0
KWE2 141513Z 04012KT 05/M01 A3035 RMK A01 T00541013  RH  062%=      5-min Rain = 0
KWE2 141514Z 04013KT 06/M01 A3035 RMK A01 T00551012  RH  062%=      5-min Rain = 0
KWE2 141515Z 04013KT 06/M01 A3035 RMK A01 T00551012  RH  062%=      5-min Rain = 0
KWE2 141516Z 05014KT 06/M01 A3035 RMK A01 T00561012  RH  062%=      5-min Rain = 0
KWE2 141517Z 04013KT 06/M01 A3035 RMK A01 T00551013  RH  062%=      5-min Rain = 0
KWE2 141518Z 04014KT 06/M01 A3035 RMK A01 T00561011  RH  062%=      5-min Rain = 0
KWE2 141519Z 05015KT 06/M01 A3035 RMK A01 T00561013  RH  061%=      5-min Rain = 0
KWE2 141520Z 05015KT 06/M01 A3035 RMK A01 T00551013  RH  062%=      5-min Rain = 0
KWE2 141521Z 04016KT 06/M01 A3035 RMK A01 T00551012  RH  062%=      5-min Rain = 0
KWE2 141522Z 05014G19KT 06/M01 A3036 RMK A01 T00551011  RH  062%=      5-min Rain = 0
KWE2 141523Z 05013KT 06/M01 A3036 RMK A01 T00561011  RH  062%=      5-min Rain = 0
KWE2 141524Z 05017KT 06/M01 A3036 RMK A01 T00561011  RH  062%=      5-min Rain = 0
KWE2 141525Z 05013KT 06/M01 A3036 RMK A01 T00561011  RH  062%=      5-min Rain = 0
KWE2 141526Z 06011G16KT 06/M01 A3036 RMK A01 T00571010  RH  062%=      5-min Rain = 0
KWE2 141527Z 05013KT 06/M01 A3036 RMK A01 T00581009  RH  062%=      5-min Rain = 0
KWE2 141528Z 06014KT 06/M01 A3036 RMK A01 T00581010  RH  062%=      5-min Rain = 0
KWE2 141529Z 06016KT 06/M01 A3036 RMK A01 T00581010  RH  062%=      5-min Rain = 0
KWE2 141530Z 05015KT 06/M01 A3036 RMK A01 T00581009  RH  062%=      5-min Rain = 0
KWE2 141531Z 05014G20KT 06/M01 A3036 RMK A01 T00581008  RH  062%=      5-min Rain = 0
KWE2 141532Z 06014KT 06/M01 A3036 RMK A01 T00591007  RH  062%=      5-min Rain = 0
KWE2 141533Z 06014KT 06/M01 A3036 RMK A01 T00601008  RH  062%=      5-min Rain = 0
KWE2 141534Z 06012G17KT 06/M01 A3036 RMK A01 T00591008  RH  062%=      5-min Rain = 0
KWE2 141535Z 06013KT 06/M01 A3036 RMK A01 T00601007  RH  062%=      5-min Rain = 0
KWE2 141536Z 06011KT 06/M01 A3036 RMK A01 T00601008  RH  062%=      5-min Rain = 0
KWE2 141537Z 06014KT 06/M01 A3036 RMK A01 T00601007  RH  062%=      5-min Rain = 0
KWE2 141538Z 05015KT 06/M01 A3036 RMK A01 T00601007  RH  062%=      5-min Rain = 0
KWE2 141539Z 06015KT 06/M01 A3036 RMK A01 T00601006  RH  062%=      5-min Rain = 0
KWE2 141540Z 06016G21KT 06/M01 A3036 RMK A01 T00601007  RH  062%=      5-min Rain = 0
KWE2 141541Z 06015G21KT 06/M01 A3036 RMK A01 T00601006  RH  062%=      5-min Rain = 0
KWE2 141542Z 06016G21KT 06/M01 A3036 RMK A01 T00611006  RH  062%=      5-min Rain = 0
KWE2 141543Z 06013KT 06/M01 A3036 RMK A01 T00611006  RH  062%=      5-min Rain = 0
KWE2 141544Z 06016KT 06/M01 A3036 RMK A01 T00621005  RH  062%=      5-min Rain = 0
KWE2 141545Z 06015KT 06/M01 A3036 RMK A01 T00621006  RH  062%=      5-min Rain = 0
KWE2 141546Z 06014KT 06/M01 A3036 RMK A01 T00621006  RH  062%=      5-min Rain = 0
KWE2 141547Z 06016KT 06/M01 A3037 RMK A01 T00611006  RH  062%=      5-min Rain = 0
KWE2 141548Z 06013G19KT 06/M01 A3037 RMK A01 T00611005  RH  062%=      5-min Rain = 0
KWE2 141549Z 05013G18KT 06/M00 A3037 RMK A01 T00621004  RH  063%=      5-min Rain = 0
KWE2 141550Z 06015G20KT 06/M00 A3037 RMK A01 T00631004  RH  062%=      5-min Rain = 0
KWE2 141551Z 06013KT 06/M01 A3037 RMK A01 T00621005  RH  062%=      5-min Rain = 0
KWE2 141552Z 06015G20KT 06/M01 A3037 RMK A01 T00621005  RH  062%=      5-min Rain = 0
KWE2 141553Z 06015G20KT 06/M01 A3037 RMK A01 T00621005  RH  062%=      5-min Rain = 0
KWE2 141554Z 06011KT 06/M00 A3037 RMK A01 T00621004  RH  062%=      5-min Rain = 0
KWE2 141555Z 06013G18KT 07/M00 A3037 RMK A01 T00651002  RH  062%=      5-min Rain = 0
KWE2 141556Z 06014KT 07/M00 A3037 RMK A01 T00651004  RH  061%=      5-min Rain = 0
KWE2 141557Z 06016KT 06/M01 A3037 RMK A01 T00631005  RH  062%=      5-min Rain = 0
KWE2 141558Z 05014G20KT 06/M01 A3038 RMK A01 T00631005  RH  062%=      5-min Rain = 0
KWE2 141559Z 06014G19KT 06/M00 A3038 RMK A01 T00621004  RH  062%=      5-min Rain = 0
KWE2 141600Z 06013G18KT 06/M00 A3038 RMK A01 T00631004  RH  062%=      5-min Rain = 0
KWE2 141601Z 06012G17KT 06/M00 A3038 RMK A01 T00631003  RH  063%=      5-min Rain = 0
KWE2 141602Z 06010KT 07/M00 A3038 RMK A01 T00651002  RH  062%=      5-min Rain = 0
KWE2 141603Z 07014KT 07/M00 A3038 RMK A01 T00661002  RH  061%=      5-min Rain = 0
KWE2 141604Z 06015KT 07/M00 A3038 RMK A01 T00651004  RH  061%=      5-min Rain = 0
KWE2 141605Z 06012KT 06/M00 A3038 RMK A01 T00641004  RH  062%=      5-min Rain = 0
KWE2 141606Z 05015KT 06/M00 A3038 RMK A01 T00641004  RH  062%=      5-min Rain = 0
KWE2 141607Z 05016KT 06/M00 A3038 RMK A01 T00641003  RH  062%=      5-min Rain = 0
KWE2 141608Z 05014KT 06/M00 A3038 RMK A01 T00641003  RH  062%=      5-min Rain = 0
KWE2 141609Z 06012KT 07/M00 A3038 RMK A01 T00651001  RH  062%=      5-min Rain = 0
KWE2 141610Z 06014KT 07/M00 A3038 RMK A01 T00671002  RH  062%=      5-min Rain = 0
KWE2 141611Z 05013KT 07/M00 A3038 RMK A01 T00661003  RH  062%=      5-min Rain = 0
KWE2 141612Z 06014KT 07/M00 A3038 RMK A01 T00651002  RH  062%=      5-min Rain = 0
KWE2 141613Z 06016KT 07/M00 A3038 RMK A01 T00651002  RH  062%=      5-min Rain = 0
KWE2 141614Z 05013KT 07/M00 A3038 RMK A01 T00651002  RH  062%=      5-min Rain = 0
KWE2 141615Z 05013KT 07/M00 A3038 RMK A01 T00661001  RH  063%=      5-min Rain = 0
KWE2 141616Z 05013KT 07/00 A3038 RMK A01 T006700-0  RH  062%=      5-min Rain = 0
KWE2 141617Z 05014KT 07/00 A3038 RMK A01 T00680000  RH  062%=      5-min Rain = 0
KWE2 141618Z 05013KT 07/M00 A3038 RMK A01 T00681001  RH  061%=      5-min Rain = 0
KWE2 141619Z 05012KT 07/00 A3038 RMK A01 T00690001  RH  062%=      5-min Rain = 0
KWE2 141620Z 06014KT 07/00 A3038 RMK A01 T006900-0  RH  061%=      5-min Rain = 0
KWE2 141621Z 06014KT 07/00 A3038 RMK A01 T006900-0  RH  061%=      5-min Rain = 0
KWE2 141622Z 06011KT 07/00 A3038 RMK A01 T00690000  RH  062%=      5-min Rain = 0
KWE2 141623Z 05012KT 07/00 A3038 RMK A01 T00690002  RH  062%=      5-min Rain = 0
KWE2 141624Z 05014KT 07/00 A3038 RMK A01 T00700000  RH  061%=      5-min Rain = 0
KWE2 141625Z 06013KT 07/00 A3038 RMK A01 T00690001  RH  062%=      5-min Rain = 0
KWE2 141626Z 05013KT 07/00 A3038 RMK A01 T00710002  RH  062%=      5-min Rain = 0
KWE2 141627Z 05014KT 07/00 A3038 RMK A01 T00720002  RH  061%=      5-min Rain = 0
KWE2 141628Z 06013KT 07/00 A3038 RMK A01 T00720002  RH  061%=      5-min Rain = 0
KWE2 141629Z 07010G15KT 07/00 A3038 RMK A01 T00720002  RH  061%=      5-min Rain = 0
KWE2 141630Z 05011KT 07/00 A3038 RMK A01 T00720002  RH  061%=      5-min Rain = 0
KWE2 141631Z 05011KT 07/01 A3038 RMK A01 T00740005  RH  061%=      5-min Rain = 0
KWE2 141632Z 05014KT 08/00 A3038 RMK A01 T00760004  RH  060%=      5-min Rain = 0
KWE2 141633Z 05015KT 08/00 A3038 RMK A01 T00750003  RH  060%=      5-min Rain = 0
KWE2 141634Z 05014KT 07/00 A3038 RMK A01 T00740003  RH  061%=      5-min Rain = 0
KWE2 141635Z 04014KT 07/00 A3038 RMK A01 T00740003  RH  061%=      5-min Rain = 0
KWE2 141636Z 05014KT 07/00 A3038 RMK A01 T00740003  RH  061%=      5-min Rain = 0
KWE2 141637Z 05009G14KT 08/01 A3039 RMK A01 T00760005  RH  061%=      5-min Rain = 0
KWE2 141638Z 06010G16KT 08/01 A3039 RMK A01 T00790007  RH  060%=      5-min Rain = 0
KWE2 141639Z 06016KT 08/00 A3039 RMK A01 T00790004  RH  059%=      5-min Rain = 0
KWE2 141640Z 07014KT 08/00 A3039 RMK A01 T00770002  RH  059%=      5-min Rain = 0
KWE2 141641Z 05012G17KT 08/00 A3039 RMK A01 T00760003  RH  060%=      5-min Rain = 0
KWE2 141642Z 04016KT 08/00 A3039 RMK A01 T00770004  RH  060%=      5-min Rain = 0
KWE2 141643Z 04016KT 08/01 A3039 RMK A01 T00770005  RH  060%=      5-min Rain = 0
KWE2 141644Z 05015KT 08/00 A3039 RMK A01 T00770004  RH  060%=      5-min Rain = 0
KWE2 141645Z 06013KT 08/01 A3039 RMK A01 T00780005  RH  060%=      5-min Rain = 0
KWE2 141646Z 06013KT 08/01 A3039 RMK A01 T00790005  RH  060%=      5-min Rain = 0
KWE2 141647Z 06014KT 08/01 A3039 RMK A01 T00790005  RH  059%=      5-min Rain = 0
KWE2 141648Z 06013KT 08/01 A3039 RMK A01 T00790005  RH  060%=      5-min Rain = 0
KWE2 141649Z 05010KT 08/01 A3039 RMK A01 T00800005  RH  059%=      5-min Rain = 0
KWE2 141650Z 05012KT 08/01 A3039 RMK A01 T00800006  RH  060%=      5-min Rain = 0
KWE2 141651Z 04015KT 08/01 A3039 RMK A01 T00820007  RH  059%=      5-min Rain = 0
KWE2 141652Z 04014KT 08/00 A3039 RMK A01 T00800004  RH  059%=      5-min Rain = 0
KWE2 141653Z 04017KT 08/00 A3039 RMK A01 T00790003  RH  059%=      5-min Rain = 0
KWE2 141654Z 03014KT 08/00 A3039 RMK A01 T00780003  RH  059%=      5-min Rain = 0
KWE2 141655Z 04014KT 08/01 A3039 RMK A01 T00790005  RH  060%=      5-min Rain = 0
KWE2 141656Z 04012KT 08/01 A3039 RMK A01 T00800005  RH  059%=      5-min Rain = 0
KWE2 141657Z 06013KT 08/01 A304 RMK A01 T00820006  RH  059%=      5-min Rain = 0
KWE2 141658Z 07013KT 08/00 A304 RMK A01 T00820004  RH  058%=      5-min Rain = 0
KWE2 141659Z 06014KT 08/00 A304 RMK A01 T00800004  RH  059%=      5-min Rain = 0
KWE2 141700Z 06015KT 08/01 A304 RMK A01 T00800005  RH  059%=      5-min Rain = 0
KWE2 141701Z 06013KT 08/01 A304 RMK A01 T00800005  RH  059%=      5-min Rain = 0
KWE2 141702Z 06010G15KT 08/01 A304 RMK A01 T00810006  RH  059%=      5-min Rain = 0
KWE2 141703Z 06010KT 08/01 A304 RMK A01 T00820005  RH  058%=      5-min Rain = 0
KWE2 141704Z 06015G21KT 08/01 A304 RMK A01 T00830005  RH  058%=      5-min Rain = 0
KWE2 141705Z 04014G19KT 08/00 A304 RMK A01 T00830004  RH  057%=      5-min Rain = 0
KWE2 141706Z 04014KT 09/01 A304 RMK A01 T00850005  RH  057%=      5-min Rain = 0
KWE2 141707Z 06010G15KT 09/01 A304 RMK A01 T00850005  RH  057%=      5-min Rain = 0
KWE2 141708Z 06014G19KT 09/01 A304 RMK A01 T00860005  RH  057%=      5-min Rain = 0
KWE2 141709Z 06015KT 08/00 A304 RMK A01 T00840003  RH  057%=      5-min Rain = 0
KWE2 141710Z 06014G19KT 08/00 A304 RMK A01 T00820003  RH  058%=      5-min Rain = 0
KWE2 141711Z 06012KT 08/00 A304 RMK A01 T00820004  RH  058%=      5-min Rain = 0
KWE2 141712Z 07011KT 08/00 A304 RMK A01 T00830004  RH  058%=      5-min Rain = 0
KWE2 141713Z 06014KT 08/00 A304 RMK A01 T00830004  RH  057%=      5-min Rain = 0
KWE2 141714Z 06015KT 08/00 A304 RMK A01 T00830004  RH  057%=      5-min Rain = 0
KWE2 141715Z 06012KT 08/00 A304 RMK A01 T00830003  RH  057%=      5-min Rain = 0
KWE2 141716Z 05013KT 08/00 A304 RMK A01 T00830003  RH  057%=      5-min Rain = 0
KWE2 141717Z 06012KT 09/00 A304 RMK A01 T00850004  RH  057%=      5-min Rain = 0
KWE2 141718Z 06014KT 09/00 A304 RMK A01 T00860004  RH  056%=      5-min Rain = 0
KWE2 141719Z 06013KT 09/00 A304 RMK A01 T00850003  RH  056%=      5-min Rain = 0
KWE2 141720Z 06010KT 09/00 A304 RMK A01 T00850004  RH  057%=      5-min Rain = 0
KWE2 141721Z 06010KT 09/01 A304 RMK A01 T00860005  RH  057%=      5-min Rain = 0
KWE2 141722Z 06015KT 09/00 A304 RMK A01 T00870004  RH  056%=      5-min Rain = 0
KWE2 141723Z 05011KT 09/00 A304 RMK A01 T00870004  RH  056%=      5-min Rain = 0
KWE2 141724Z 06011KT 09/00 A304 RMK A01 T00860004  RH  056%=      5-min Rain = 0
KWE2 141725Z 06012KT 09/00 A304 RMK A01 T00860003  RH  056%=      5-min Rain = 0
KWE2 141726Z 05011KT 09/00 A304 RMK A01 T00860004  RH  056%=      5-min Rain = 0
KWE2 141727Z 05010KT 09/01 A304 RMK A01 T00870005  RH  056%=      5-min Rain = 0
KWE2 141728Z 05011KT 09/01 A304 RMK A01 T00870005  RH  056%=      5-min Rain = 0
KWE2 141729Z 05011KT 09/01 A304 RMK A01 T00870005  RH  056%=      5-min Rain = 0
KWE2 141730Z 06010KT 09/01 A304 RMK A01 T00870005  RH  056%=      5-min Rain = 0
KWE2 141731Z 07010G15KT 09/00 A304 RMK A01 T00880003  RH  055%=      5-min Rain = 0
KWE2 141732Z 06013KT 09/00 A304 RMK A01 T00880003  RH  055%=      5-min Rain = 0
KWE2 141733Z 06013KT 09/00 A304 RMK A01 T00880001  RH  054%=      5-min Rain = 0
KWE2 141734Z 06015KT 09/00 A304 RMK A01 T00880001  RH  054%=      5-min Rain = 0
KWE2 141735Z 05013KT 09/00 A304 RMK A01 T00870001  RH  055%=      5-min Rain = 0
KWE2 141736Z 05013KT 09/00 A304 RMK A01 T00870002  RH  055%=      5-min Rain = 0
KWE2 141737Z 06009KT 09/00 A304 RMK A01 T00880003  RH  055%=      5-min Rain = 0
KWE2 141738Z 07010KT 09/00 A304 RMK A01 T00900003  RH  054%=      5-min Rain = 0
KWE2 141739Z 05014KT 09/00 A304 RMK A01 T00900002  RH  054%=      5-min Rain = 0
KWE2 141740Z 05015KT 09/00 A304 RMK A01 T008900-0  RH  053%=      5-min Rain = 0
KWE2 141741Z 04015KT 09/00 A304 RMK A01 T00880000  RH  054%=      5-min Rain = 0
KWE2 141742Z 05015KT 09/00 A304 RMK A01 T00900003  RH  054%=      5-min Rain = 0
KWE2 141743Z 04014KT 09/00 A304 RMK A01 T00920001  RH  053%=      5-min Rain = 0
KWE2 141744Z 05013KT 09/M00 A304 RMK A01 T00921001  RH  052%=      5-min Rain = 0
KWE2 141745Z 06012KT 09/00 A304 RMK A01 T00910001  RH  053%=      5-min Rain = 0
KWE2 141746Z 06014KT 09/00 A304 RMK A01 T009100-0  RH  053%=      5-min Rain = 0
KWE2 141747Z 08012KT 09/M00 A304 RMK A01 T00901002  RH  053%=      5-min Rain = 0
KWE2 141748Z 07012KT 09/00 A304 RMK A01 T00900000  RH  053%=      5-min Rain = 0
KWE2 141749Z 06014KT 09/00 A304 RMK A01 T00930001  RH  053%=      5-min Rain = 0
KWE2 141750Z 06011KT 09/00 A304 RMK A01 T00930000  RH  052%=      5-min Rain = 0
KWE2 141751Z 05014KT 09/00 A304 RMK A01 T00920000  RH  053%=      5-min Rain = 0
KWE2 141752Z 06014KT 09/M00 A304 RMK A01 T00921001  RH  052%=      5-min Rain = 0
KWE2 141753Z 05013KT 09/M00 A304 RMK A01 T00911002  RH  052%=      5-min Rain = 0
KWE2 141754Z 05016KT 09/M00 A304 RMK A01 T00911001  RH  053%=      5-min Rain = 0
KWE2 141755Z 05013KT 09/M00 A304 RMK A01 T00921002  RH  052%=      5-min Rain = 0
KWE2 141756Z 05014KT 09/M00 A304 RMK A01 T00921001  RH  052%=      5-min Rain = 0
KWE2 141757Z 04013KT 09/00 A304 RMK A01 T009300-0  RH  052%=      5-min Rain = 0
KWE2 141758Z 04015KT 10/M00 A304 RMK A01 T00951001  RH  051%=      5-min Rain = 0
KWE2 141759Z 06012G18KT 09/M00 A304 RMK A01 T00941001  RH  052%=      5-min Rain = 0
KWE2 141800Z 05015G20KT 09/M00 A304 RMK A01 T00941003  RH  051%=      5-min Rain = 0
KWE2 141801Z 06015G20KT 09/M00 A304 RMK A01 T00931004  RH  051%=      5-min Rain = 0
KWE2 141802Z 05015KT 09/M01 A304 RMK A01 T00921005  RH  051%=      5-min Rain = 0
KWE2 141803Z 04014KT 09/M00 A304 RMK A01 T00941003  RH  051%=      5-min Rain = 0
KWE2 141804Z 04014KT 10/M00 A304 RMK A01 T00951003  RH  050%=      5-min Rain = 0
KWE2 141805Z 06015KT 09/M00 A304 RMK A01 T00941003  RH  051%=      5-min Rain = 0
KWE2 141806Z 06011KT 09/M00 A304 RMK A01 T00931002  RH  051%=      5-min Rain = 0
KWE2 141807Z 06010KT 09/M00 A304 RMK A01 T00921002  RH  052%=      5-min Rain = 0
KWE2 141808Z 05009KT 09/M00 A304 RMK A01 T00921002  RH  052%=      5-min Rain = 0
KWE2 141809Z 07012G17KT 09/M00 A304 RMK A01 T00931002  RH  052%=      5-min Rain = 0
KWE2 141810Z 06015KT 09/M00 A304 RMK A01 T00931003  RH  051%=      5-min Rain = 0
KWE2 141811Z 05015KT 10/M00 A304 RMK A01 T00951002  RH  051%=      5-min Rain = 0
KWE2 141812Z 04012KT 10/M00 A304 RMK A01 T00951004  RH  050%=      5-min Rain = 0
KWE2 141813Z 05015G20KT 09/M00 A304 RMK A01 T00941002  RH  051%=      5-min Rain = 0
KWE2 141814Z 06015KT 10/M00 A304 RMK A01 T00961002  RH  050%=      5-min Rain = 0
KWE2 141815Z 06011KT 10/M01 A304 RMK A01 T00951005  RH  050%=      5-min Rain = 0
KWE2 141816Z 06010KT 09/M01 A304 RMK A01 T00931005  RH  051%=      5-min Rain = 0
KWE2 141817Z 06012KT 09/M00 A304 RMK A01 T00931003  RH  051%=      5-min Rain = 0
KWE2 141818Z 06016G22KT 09/M00 A304 RMK A01 T00941003  RH  051%=      5-min Rain = 0
KWE2 141819Z 06014KT 09/M00 A304 RMK A01 T00941004  RH  050%=      5-min Rain = 0
KWE2 141820Z 07013KT 09/M00 A304 RMK A01 T00931004  RH  051%=      5-min Rain = 0
KWE2 141821Z 06013KT 09/M00 A304 RMK A01 T00931003  RH  051%=      5-min Rain = 0
KWE2 141822Z 05012KT 09/M00 A304 RMK A01 T00941002  RH  051%=      5-min Rain = 0
KWE2 141823Z 05013KT 10/M00 A304 RMK A01 T00961002  RH  051%=      5-min Rain = 0
KWE2 141824Z 06012KT 09/M00 A304 RMK A01 T00941004  RH  050%=      5-min Rain = 0
KWE2 141825Z 06011G16KT 09/M00 A304 RMK A01 T00931003  RH  051%=      5-min Rain = 0
KWE2 141826Z 07011KT 09/M00 A3039 RMK A01 T00941003  RH  051%=      5-min Rain = 0
KWE2 141827Z 06013KT 10/M00 A304 RMK A01 T00961002  RH  050%=      5-min Rain = 0
KWE2 141828Z 06012G17KT 10/M00 A3039 RMK A01 T00981003  RH  049%=      5-min Rain = 0
KWE2 141829Z 06011KT 10/M00 A3039 RMK A01 T00971003  RH  050%=      5-min Rain = 0
KWE2 141830Z 04014KT 10/M00 A3039 RMK A01 T00981003  RH  050%=      5-min Rain = 0
KWE2 141831Z 06013KT 10/M01 A3039 RMK A01 T00981005  RH  049%=      5-min Rain = 0
KWE2 141832Z 06014KT 10/M01 A3039 RMK A01 T00961006  RH  049%=      5-min Rain = 0
KWE2 141833Z 08010KT 10/M01 A3039 RMK A01 T00951006  RH  049%=      5-min Rain = 0
KWE2 141834Z 07012KT 10/M00 A3039 RMK A01 T00961004  RH  050%=      5-min Rain = 0
KWE2 141835Z 07009KT 10/M00 A3039 RMK A01 T00961004  RH  050%=      5-min Rain = 0
KWE2 141836Z 07010G15KT 10/M00 A3039 RMK A01 T00971003  RH  050%=      5-min Rain = 0
KWE2 141837Z 08013KT 10/M00 A3039 RMK A01 T00971004  RH  049%=      5-min Rain = 0
KWE2 141838Z 08010KT 10/M01 A3039 RMK A01 T00961005  RH  049%=      5-min Rain = 0
KWE2 141839Z 07009KT 10/M00 A3039 RMK A01 T00961004  RH  050%=      5-min Rain = 0
KWE2 141840Z 06011KT 10/M00 A3039 RMK A01 T00971004  RH  049%=      5-min Rain = 0
KWE2 141841Z 06011G16KT 10/M00 A3039 RMK A01 T00991004  RH  049%=      5-min Rain = 0
KWE2 141842Z 05011KT 10/M01 A3039 RMK A01 T01001005  RH  048%=      5-min Rain = 0
KWE2 141843Z 05011KT 10/M01 A3039 RMK A01 T00991006  RH  048%=      5-min Rain = 0
KWE2 141844Z 06011KT 10/M01 A3039 RMK A01 T00991006  RH  048%=      5-min Rain = 0
KWE2 141845Z 07011G16KT 10/M01 A3039 RMK A01 T00991007  RH  048%=      5-min Rain = 0
KWE2 141846Z 07014KT 10/M01 A3039 RMK A01 T01001005  RH  048%=      5-min Rain = 0
KWE2 141847Z 07014KT 10/M01 A3039 RMK A01 T01001006  RH  048%=      5-min Rain = 0
KWE2 141848Z 06011KT 10/M01 A3039 RMK A01 T00981006  RH  048%=      5-min Rain = 0
KWE2 141849Z 07011KT 10/M00 A3039 RMK A01 T00981004  RH  049%=      5-min Rain = 0
KWE2 141850Z 08010KT 10/M00 A3038 RMK A01 T00981004  RH  049%=      5-min Rain = 0
KWE2 141851Z 06008KT 10/M00 A3038 RMK A01 T00981004  RH  049%=      5-min Rain = 0
KWE2 141852Z 05011KT 10/M00 A3038 RMK A01 T01001002  RH  049%=      5-min Rain = 0
KWE2 141853Z 04012KT 10/M00 A3038 RMK A01 T01021004  RH  048%=      5-min Rain = 0
KWE2 141854Z 06010KT 10/M00 A3038 RMK A01 T01031004  RH  048%=      5-min Rain = 0
KWE2 141855Z 07008KT 10/M01 A3038 RMK A01 T01031005  RH  047%=      5-min Rain = 0
KWE2 141856Z 05009KT 10/M00 A3038 RMK A01 T01021004  RH  048%=      5-min Rain = 0
KWE2 141857Z 06013KT 10/M00 A3038 RMK A01 T01031004  RH  047%=      5-min Rain = 0
KWE2 141858Z 06013KT 10/M01 A3038 RMK A01 T01031006  RH  047%=      5-min Rain = 0
KWE2 141859Z 07015KT 10/M01 A3038 RMK A01 T01031008  RH  046%=      5-min Rain = 0
KWE2 141900Z 06011KT 10/M01 A3038 RMK A01 T01021009  RH  046%=      5-min Rain = 0
KWE2 141901Z 06011KT 10/M01 A3038 RMK A01 T01011010  RH  046%=      5-min Rain = 0
KWE2 141902Z 07013KT 10/M01 A3038 RMK A01 T00991009  RH  047%=      5-min Rain = 0
KWE2 141903Z 05011KT 10/M01 A3038 RMK A01 T01001009  RH  047%=      5-min Rain = 0
KWE2 141904Z 05010KT 10/M01 A3038 RMK A01 T00991008  RH  047%=      5-min Rain = 0
KWE2 141905Z 05012KT 10/M01 A3038 RMK A01 T00991008  RH  047%=      5-min Rain = 0
KWE2 141906Z 06013KT 10/M01 A3038 RMK A01 T01011006  RH  047%=      5-min Rain = 0
KWE2 141907Z 07013KT 10/M01 A3038 RMK A01 T01041008  RH  046%=      5-min Rain = 0
KWE2 141908Z 07011KT 10/M01 A3038 RMK A01 T01011012  RH  046%=      5-min Rain = 0
KWE2 141909Z 06014KT 10/M01 A3038 RMK A01 T00991010  RH  047%=      5-min Rain = 0
KWE2 141910Z 06012G17KT 10/M01 A3038 RMK A01 T00991009  RH  047%=      5-min Rain = 0
KWE2 141911Z 08009KT 10/M01 A3038 RMK A01 T00991009  RH  047%=      5-min Rain = 0
KWE2 141912Z 07009KT 10/M01 A3038 RMK A01 T00991010  RH  047%=      5-min Rain = 0
KWE2 141913Z 05011KT 10/M01 A3038 RMK A01 T00981008  RH  047%=      5-min Rain = 0
KWE2 141914Z 05013KT 10/M01 A3038 RMK A01 T01001008  RH  047%=      5-min Rain = 0
KWE2 141915Z 06012KT 10/M01 A3038 RMK A01 T01001010  RH  047%=      5-min Rain = 0
KWE2 141916Z 08010KT 10/M01 A3038 RMK A01 T01001008  RH  047%=      5-min Rain = 0
KWE2 141917Z 08008KT 10/M01 A3038 RMK A01 T01021006  RH  047%=      5-min Rain = 0
KWE2 141918Z 06008G13KT 10/M01 A3038 RMK A01 T01041007  RH  046%=      5-min Rain = 0
KWE2 141919Z 07011KT 11/M01 A3038 RMK A01 T01061005  RH  046%=      5-min Rain = 0
KWE2 141920Z 06011G16KT 11/M01 A3038 RMK A01 T01061008  RH  045%=      5-min Rain = 0
KWE2 141921Z 08011KT 10/M01 A3038 RMK A01 T01041010  RH  045%=      5-min Rain = 0
KWE2 141922Z 08011KT 10/M01 A3038 RMK A01 T01021011  RH  046%=      5-min Rain = 0
KWE2 141923Z 06011KT 10/M01 A3038 RMK A01 T01021008  RH  046%=      5-min Rain = 0
KWE2 141924Z 08010KT 10/M01 A3038 RMK A01 T01041008  RH  046%=      5-min Rain = 0
KWE2 141925Z 07010KT 10/M01 A3038 RMK A01 T01041009  RH  046%=      5-min Rain = 0
KWE2 141926Z 07013G18KT 10/M01 A3038 RMK A01 T01041008  RH  046%=      5-min Rain = 0
KWE2 141927Z 07014KT 10/M01 A3038 RMK A01 T01041010  RH  045%=      5-min Rain = 0
KWE2 141928Z 06013KT 10/M01 A3038 RMK A01 T01031010  RH  045%=      5-min Rain = 0
KWE2 141929Z 05012KT 10/M01 A3038 RMK A01 T01031009  RH  046%=      5-min Rain = 0
KWE2 141930Z 05011KT 10/M01 A3038 RMK A01 T01041007  RH  046%=      5-min Rain = 0
KWE2 141931Z 07009KT 11/M01 A3038 RMK A01 T01051008  RH  045%=      5-min Rain = 0
KWE2 141932Z 05011KT 11/M01 A3038 RMK A01 T01051008  RH  045%=      5-min Rain = 0
KWE2 141933Z 04013KT 10/M01 A3037 RMK A01 T01041009  RH  045%=      5-min Rain = 0
KWE2 141934Z 06011G16KT 10/M01 A3037 RMK A01 T01041008  RH  046%=      5-min Rain = 0
KWE2 141935Z 07011KT 11/M01 A3038 RMK A01 T01051008  RH  045%=      5-min Rain = 0
KWE2 141936Z 07013KT 11/M01 A3037 RMK A01 T01061009  RH  045%=      5-min Rain = 0
KWE2 141937Z 07012KT 10/M01 A3037 RMK A01 T01041010  RH  045%=      5-min Rain = 0
KWE2 141938Z 07010KT 10/M01 A3037 RMK A01 T01031009  RH  046%=      5-min Rain = 0
KWE2 141939Z 07012KT 11/M01 A3037 RMK A01 T01051008  RH  045%=      5-min Rain = 0
KWE2 141940Z 07013KT 10/M01 A3037 RMK A01 T01041010  RH  045%=      5-min Rain = 0
KWE2 141941Z 07009KT 10/M01 A3037 RMK A01 T01031011  RH  045%=      5-min Rain = 0
KWE2 141942Z 07008KT 10/M01 A3037 RMK A01 T01011011  RH  046%=      5-min Rain = 0
KWE2 141943Z 05009KT 10/M01 A3037 RMK A01 T01011010  RH  046%=      5-min Rain = 0
KWE2 141944Z 06009KT 10/M01 A3037 RMK A01 T01021009  RH  046%=      5-min Rain = 0
KWE2 141945Z 07007KT 10/M01 A3037 RMK A01 T01041007  RH  046%=      5-min Rain = 0
KWE2 141946Z 08010KT 11/M01 A3037 RMK A01 T01071006  RH  046%=      5-min Rain = 0
KWE2 141947Z 07012KT 11/M01 A3037 RMK A01 T01081008  RH  045%=      5-min Rain = 0
KWE2 141948Z 06013KT 11/M01 A3037 RMK A01 T01061009  RH  045%=      5-min Rain = 0
KWE2 141949Z 05008KT 11/M01 A3037 RMK A01 T01071010  RH  044%=      5-min Rain = 0
KWE2 141950Z 05009KT 11/M01 A3037 RMK A01 T01081008  RH  045%=      5-min Rain = 0
KWE2 141951Z 04012KT 11/M01 A3037 RMK A01 T01101007  RH  044%=      5-min Rain = 0
KWE2 141952Z 05011G16KT 11/M01 A3037 RMK A01 T01111008  RH  044%=      5-min Rain = 0
KWE2 141953Z 05011KT 11/M01 A3037 RMK A01 T01091008  RH  044%=      5-min Rain = 0
KWE2 141954Z 04009KT 11/M01 A3037 RMK A01 T01051011  RH  044%=      5-min Rain = 0
KWE2 141955Z 02010G15KT 10/M01 A3037 RMK A01 T01041009  RH  045%=      5-min Rain = 0
KWE2 141956Z 04012KT 11/M01 A3037 RMK A01 T01051007  RH  046%=      5-min Rain = 0
KWE2 141957Z 05010KT 11/M01 A3037 RMK A01 T01071008  RH  045%=      5-min Rain = 0
KWE2 141958Z 07009G14KT 11/M01 A3037 RMK A01 T01061008  RH  045%=      5-min Rain = 0
KWE2 141959Z 08010KT 11/M01 A3037 RMK A01 T01061007  RH  045%=      5-min Rain = 0
KWE2 142000Z 07014G20KT 11/M01 A3037 RMK A01 T01071008  RH  045%=      5-min Rain = 0
KWE2 142001Z 06012KT 11/M01 A3037 RMK A01 T01051009  RH  045%=      5-min Rain = 0
KWE2 142002Z 06010KT 11/M01 A3037 RMK A01 T01051008  RH  046%=      5-min Rain = 0
KWE2 142003Z 08011KT 11/M01 A3037 RMK A01 T01071008  RH  045%=      5-min Rain = 0
KWE2 142004Z 07009KT 11/M01 A3036 RMK A01 T01061010  RH  044%=      5-min Rain = 0
KWE2 142005Z 08009KT 11/M01 A3036 RMK A01 T01061008  RH  045%=      5-min Rain = 0
KWE2 142006Z 07010KT 11/M00 A3036 RMK A01 T01101004  RH  045%=      5-min Rain = 0
KWE2 142007Z 07012KT 11/M01 A3036 RMK A01 T01111008  RH  044%=      5-min Rain = 0
KWE2 142008Z 08013KT 11/M01 A3036 RMK A01 T01091009  RH  044%=      5-min Rain = 0
KWE2 142009Z 07010KT 11/M01 A3036 RMK A01 T01071010  RH  044%=      5-min Rain = 0
KWE2 142010Z 05011G16KT 11/M01 A3036 RMK A01 T01061010  RH  045%=      5-min Rain = 0
KWE2 142011Z 05013KT 11/M01 A3036 RMK A01 T01061010  RH  045%=      5-min Rain = 0
KWE2 142012Z 04012KT 11/M01 A3036 RMK A01 T01061010  RH  044%=      5-min Rain = 0
KWE2 142013Z 05008KT 11/M01 A3036 RMK A01 T01071010  RH  044%=      5-min Rain = 0
KWE2 142014Z 06009KT 11/M01 A3036 RMK A01 T01091008  RH  044%=      5-min Rain = 0
KWE2 142015Z 06008KT 11/M01 A3036 RMK A01 T01091008  RH  044%=      5-min Rain = 0
KWE2 142016Z 06008KT 11/M01 A3036 RMK A01 T01101007  RH  044%=      5-min Rain = 0
KWE2 142017Z 06008KT 11/M01 A3036 RMK A01 T01101009  RH  043%=      5-min Rain = 0
KWE2 142018Z 06008KT 11/M01 A3036 RMK A01 T01091009  RH  044%=      5-min Rain = 0
KWE2 142019Z 06011KT 11/M01 A3036 RMK A01 T01091007  RH  044%=      5-min Rain = 0
KWE2 142020Z 06009KT 11/M01 A3036 RMK A01 T01121006  RH  044%=      5-min Rain = 0
KWE2 142021Z 06012KT 11/M01 A3036 RMK A01 T01121007  RH  043%=      5-min Rain = 0
KWE2 142022Z 05011KT 11/M01 A3036 RMK A01 T01101009  RH  044%=      5-min Rain = 0
KWE2 142023Z 07011KT 11/M01 A3036 RMK A01 T01091008  RH  044%=      5-min Rain = 0
KWE2 142024Z 05011KT 11/M01 A3036 RMK A01 T01091008  RH  044%=      5-min Rain = 0
KWE2 142025Z 05008KT 11/M01 A3036 RMK A01 T01101007  RH  044%=      5-min Rain = 0
KWE2 142026Z 08008KT 11/M01 A3036 RMK A01 T01111007  RH  044%=      5-min Rain = 0
KWE2 142027Z 07007KT 11/M01 A3036 RMK A01 T01111007  RH  044%=      5-min Rain = 0
KWE2 142028Z 06009KT 11/M01 A3036 RMK A01 T01131005  RH  044%=      5-min Rain = 0
KWE2 142029Z 04010KT 11/M01 A3036 RMK A01 T01131007  RH  043%=      5-min Rain = 0
KWE2 142030Z 05007KT 11/M01 A3036 RMK A01 T01121007  RH  044%=      5-min Rain = 0
KWE2 142031Z 05011KT 11/M01 A3036 RMK A01 T01131006  RH  044%=      5-min Rain = 0
KWE2 142032Z 04012KT 11/M01 A3036 RMK A01 T01141007  RH  043%=      5-min Rain = 0
KWE2 142033Z 04013KT 11/M01 A3036 RMK A01 T01131009  RH  043%=      5-min Rain = 0
KWE2 142034Z 07008KT 11/M01 A3036 RMK A01 T01111009  RH  043%=      5-min Rain = 0
KWE2 142035Z 06011KT 11/M01 A3036 RMK A01 T01111009  RH  044%=      5-min Rain = 0
KWE2 142036Z 06008KT 11/M01 A3036 RMK A01 T01111010  RH  043%=      5-min Rain = 0
KWE2 142037Z 08010KT 11/M01 A3036 RMK A01 T01111007  RH  044%=      5-min Rain = 0
KWE2 142038Z 04010KT 11/M01 A3036 RMK A01 T01141007  RH  043%=      5-min Rain = 0
KWE2 142039Z 04012KT 11/M01 A3035 RMK A01 T01141010  RH  042%=      5-min Rain = 0
KWE2 142040Z 05012G18KT 11/M01 A3036 RMK A01 T01141009  RH  042%=      5-min Rain = 0
KWE2 142041Z 07007KT 12/M01 A3036 RMK A01 T01161006  RH  043%=      5-min Rain = 0
KWE2 142042Z 06008KT 12/M01 A3036 RMK A01 T01161006  RH  043%=      5-min Rain = 0
KWE2 142043Z 07009KT 12/M01 A3036 RMK A01 T01151008  RH  043%=      5-min Rain = 0
KWE2 142044Z 06009KT 11/M01 A3036 RMK A01 T01131008  RH  043%=      5-min Rain = 0
KWE2 142045Z 04008KT 11/M01 A3036 RMK A01 T01121007  RH  044%=      5-min Rain = 0
KWE2 142046Z 05009KT 11/M01 A3036 RMK A01 T01121006  RH  044%=      5-min Rain = 0
KWE2 142047Z 08007KT 11/M01 A3036 RMK A01 T01141005  RH  044%=      5-min Rain = 0
KWE2 142048Z 08007KT 11/M01 A3035 RMK A01 T01131007  RH  043%=      5-min Rain = 0
KWE2 142049Z 05007KT 11/M01 A3035 RMK A01 T01121006  RH  044%=      5-min Rain = 0
KWE2 142050Z 05008KT 11/M01 A3035 RMK A01 T01131008  RH  043%=      5-min Rain = 0
KWE2 142051Z 06006KT 11/M01 A3035 RMK A01 T01121008  RH  043%=      5-min Rain = 0
KWE2 142052Z 07008KT 11/M01 A3035 RMK A01 T01131007  RH  044%=      5-min Rain = 0
KWE2 142053Z 06009KT 11/M01 A3035 RMK A01 T01141008  RH  043%=      5-min Rain = 0
KWE2 142054Z 06008KT 11/M01 A3035 RMK A01 T01131007  RH  043%=      5-min Rain = 0
KWE2 142055Z 08008KT 11/M01 A3035 RMK A01 T01121007  RH  044%=      5-min Rain = 0
KWE2 142056Z 07010KT 11/M01 A3036 RMK A01 T01121007  RH  044%=      5-min Rain = 0
KWE2 142057Z 06012KT 11/M01 A3036 RMK A01 T01121007  RH  044%=      5-min Rain = 0
KWE2 142058Z 05010KT 11/M01 A3036 RMK A01 T01121007  RH  044%=      5-min Rain = 0
KWE2 142059Z 05008KT 11/M01 A3036 RMK A01 T01111008  RH  044%=      5-min Rain = 0
KWE2 142100Z 07006KT 11/M01 A3036 RMK A01 T01101008  RH  044%=      5-min Rain = 0
KWE2 142101Z 09008KT 11/M01 A3035 RMK A01 T01101007  RH  044%=      5-min Rain = 0
KWE2 142102Z 07010KT 11/M01 A3035 RMK A01 T01111007  RH  044%=      5-min Rain = 0
KWE2 142103Z 06010KT 11/M01 A3035 RMK A01 T01111008  RH  044%=      5-min Rain = 0
KWE2 142104Z 06012KT 11/M01 A3035 RMK A01 T01131006  RH  044%=      5-min Rain = 0
KWE2 142105Z 05011KT 11/M01 A3035 RMK A01 T01141008  RH  043%=      5-min Rain = 0
KWE2 142106Z 05008KT 11/M01 A3035 RMK A01 T01121010  RH  043%=      5-min Rain = 0
KWE2 142107Z 03007KT 11/M01 A3035 RMK A01 T01111010  RH  043%=      5-min Rain = 0
KWE2 142108Z 05006KT 11/M01 A3035 RMK A01 T01101010  RH  043%=      5-min Rain = 0
KWE2 142109Z 06010KT 11/M01 A3035 RMK A01 T01121007  RH  044%=      5-min Rain = 0
KWE2 142110Z 06009KT 11/M01 A3035 RMK A01 T01131008  RH  043%=      5-min Rain = 0
KWE2 142111Z 06007KT 11/M01 A3035 RMK A01 T01131009  RH  043%=      5-min Rain = 0
KWE2 142112Z 06009KT 11/M01 A3035 RMK A01 T01131010  RH  043%=      5-min Rain = 0
KWE2 142113Z 07011KT 11/M01 A3035 RMK A01 T01121009  RH  043%=      5-min Rain = 0
KWE2 142114Z 06010KT 11/M01 A3035 RMK A01 T01131008  RH  043%=      5-min Rain = 0
KWE2 142115Z 07010KT 11/M01 A3035 RMK A01 T01121009  RH  043%=      5-min Rain = 0
KWE2 142116Z 07010KT 11/M01 A3035 RMK A01 T01121008  RH  043%=      5-min Rain = 0
KWE2 142117Z 08008KT 11/M01 A3035 RMK A01 T01111008  RH  043%=      5-min Rain = 0
KWE2 142118Z 09006KT 11/M01 A3035 RMK A01 T01111008  RH  044%=      5-min Rain = 0
KWE2 142119Z 07006KT 11/M01 A3035 RMK A01 T01101008  RH  044%=      5-min Rain = 0
KWE2 142120Z 07007KT 11/M01 A3035 RMK A01 T01111007  RH  044%=      5-min Rain = 0
KWE2 142121Z 08010KT 11/M01 A3035 RMK A01 T01131006  RH  044%=      5-min Rain = 0
KWE2 142122Z 08010KT 11/M01 A3035 RMK A01 T01131007  RH  043%=      5-min Rain = 0
KWE2 142123Z 09011KT 11/M01 A3035 RMK A01 T01121009  RH  043%=      5-min Rain = 0
KWE2 142124Z 08007KT 11/M01 A3035 RMK A01 T01101010  RH  043%=      5-min Rain = 0
KWE2 142125Z 06008KT 11/M01 A3035 RMK A01 T01101009  RH  044%=      5-min Rain = 0
KWE2 142126Z 07006KT 11/M01 A3035 RMK A01 T01111008  RH  044%=      5-min Rain = 0
KWE2 142127Z 09009KT 11/M01 A3035 RMK A01 T01131006  RH  044%=      5-min Rain = 0
KWE2 142128Z 07012KT 11/M01 A3035 RMK A01 T01131007  RH  043%=      5-min Rain = 0
KWE2 142129Z 07010KT 11/M01 A3035 RMK A01 T01121009  RH  043%=      5-min Rain = 0
KWE2 142130Z 07009KT 11/M01 A3035 RMK A01 T01111010  RH  043%=      5-min Rain = 0
KWE2 142131Z 06006KT 11/M01 A3035 RMK A01 T01101009  RH  044%=      5-min Rain = 0
KWE2 142132Z 04007KT 11/M01 A3035 RMK A01 T01121007  RH  044%=      5-min Rain = 0
KWE2 142133Z 05007KT 11/M01 A3035 RMK A01 T01131008  RH  043%=      5-min Rain = 0
KWE2 142134Z 05008KT 11/M01 A3035 RMK A01 T01131007  RH  043%=      5-min Rain = 0
KWE2 142135Z 06010KT 11/M01 A3036 RMK A01 T01141008  RH  043%=      5-min Rain = 0
KWE2 142136Z 06010KT 11/M01 A3036 RMK A01 T01131008  RH  043%=      5-min Rain = 0
KWE2 142137Z 05011KT 11/M01 A3036 RMK A01 T01141007  RH  043%=      5-min Rain = 0
KWE2 142138Z 04009KT 11/M01 A3035 RMK A01 T01131009  RH  043%=      5-min Rain = 0
KWE2 142139Z 03008KT 11/M01 A3035 RMK A01 T01121008  RH  043%=      5-min Rain = 0
KWE2 142140Z 04010KT 11/M01 A3035 RMK A01 T01111008  RH  043%=      5-min Rain = 0
KWE2 142141Z 05010KT 11/M01 A3035 RMK A01 T01121008  RH  044%=      5-min Rain = 0
KWE2 142142Z 06010KT 11/M01 A3036 RMK A01 T01131007  RH  043%=      5-min Rain = 0
KWE2 142143Z 08008KT 11/M01 A3036 RMK A01 T01131007  RH  043%=      5-min Rain = 0
KWE2 142144Z 08008KT 11/M01 A3036 RMK A01 T01141006  RH  044%=      5-min Rain = 0
KWE2 142145Z 07008KT 11/M01 A3036 RMK A01 T01141007  RH  043%=      5-min Rain = 0
KWE2 142146Z 07007KT 11/M01 A3036 RMK A01 T01121009  RH  043%=      5-min Rain = 0
KWE2 142147Z 07004KT 11/M01 A3036 RMK A01 T01111008  RH  043%=      5-min Rain = 0
KWE2 142148Z 07006KT 11/M01 A3036 RMK A01 T01111007  RH  044%=      5-min Rain = 0
KWE2 142149Z 06007KT 11/M01 A3036 RMK A01 T01121007  RH  044%=      5-min Rain = 0
KWE2 142150Z 06009KT 11/M01 A3036 RMK A01 T01121008  RH  043%=      5-min Rain = 0
KWE2 142151Z 06010KT 11/M01 A3036 RMK A01 T01121009  RH  043%=      5-min Rain = 0
KWE2 142152Z 07010KT 11/M01 A3036 RMK A01 T01141009  RH  043%=      5-min Rain = 0
KWE2 142153Z 07009KT 11/M01 A3036 RMK A01 T01141009  RH  042%=      5-min Rain = 0
KWE2 142154Z 08007KT 11/M01 A3036 RMK A01 T01131010  RH  042%=      5-min Rain = 0
KWE2 142155Z 08009KT 11/M01 A3036 RMK A01 T01131009  RH  043%=      5-min Rain = 0
KWE2 142156Z 08009KT 11/M01 A3036 RMK A01 T01131010  RH  043%=      5-min Rain = 0
KWE2 142157Z 08009KT 11/M01 A3036 RMK A01 T01131009  RH  043%=      5-min Rain = 0
KWE2 142158Z 08008KT 11/M01 A3036 RMK A01 T01131009  RH  043%=      5-min Rain = 0
KWE2 142159Z 08006KT 11/M01 A3036 RMK A01 T01111009  RH  043%=      5-min Rain = 0
KWE2 142200Z 09005KT 11/M01 A3036 RMK A01 T01111008  RH  044%=      5-min Rain = 0
KWE2 142201Z 09007KT 11/M01 A3036 RMK A01 T01111006  RH  044%=      5-min Rain = 0
KWE2 142202Z 08008KT 11/M01 A3036 RMK A01 T01131006  RH  044%=      5-min Rain = 0
KWE2 142203Z 05009KT 11/M01 A3036 RMK A01 T01131007  RH  043%=      5-min Rain = 0
KWE2 142204Z 05010KT 11/M01 A3036 RMK A01 T01131008  RH  043%=      5-min Rain = 0
KWE2 142205Z 05006KT 11/M01 A3036 RMK A01 T01131006  RH  044%=      5-min Rain = 0
KWE2 142206Z 04006KT 12/M01 A3036 RMK A01 T01151007  RH  043%=      5-min Rain = 0
KWE2 142207Z 05005KT 11/M01 A3036 RMK A01 T01131008  RH  043%=      5-min Rain = 0
KWE2 142208Z 07007G12KT 11/M01 A3036 RMK A01 T01131006  RH  044%=      5-min Rain = 0
KWE2 142209Z 08008KT 11/M01 A3036 RMK A01 T01141006  RH  044%=      5-min Rain = 0
KWE2 142210Z 08008KT 11/M01 A3036 RMK A01 T01141007  RH  043%=      5-min Rain = 0
KWE2 142211Z 08007KT 11/M01 A3036 RMK A01 T01141007  RH  043%=      5-min Rain = 0
KWE2 142212Z 08008KT 11/M01 A3036 RMK A01 T01131007  RH  043%=      5-min Rain = 0
KWE2 142213Z 06008KT 11/M01 A3036 RMK A01 T01131007  RH  043%=      5-min Rain = 0
KWE2 142214Z 07009KT 11/M01 A3036 RMK A01 T01131008  RH  043%=      5-min Rain = 0
KWE2 142215Z 05006KT 11/M01 A3036 RMK A01 T01121008  RH  043%=      5-min Rain = 0
KWE2 142216Z 05007KT 11/M01 A3036 RMK A01 T01131007  RH  043%=      5-min Rain = 0
KWE2 142217Z 06007KT 11/M01 A3036 RMK A01 T01131007  RH  044%=      5-min Rain = 0
KWE2 142218Z 06007KT 11/M01 A3036 RMK A01 T01131006  RH  044%=      5-min Rain = 0
KWE2 142219Z 07006KT 11/M01 A3036 RMK A01 T01131007  RH  043%=      5-min Rain = 0
KWE2 142220Z 09005KT 11/M01 A3036 RMK A01 T01131007  RH  044%=      5-min Rain = 0
KWE2 142221Z 08006KT 11/M01 A3036 RMK A01 T01131005  RH  044%=      5-min Rain = 0
KWE2 142222Z 08007KT 11/M01 A3036 RMK A01 T01131007  RH  043%=      5-min Rain = 0
KWE2 142223Z 07005KT 11/M01 A3036 RMK A01 T01121008  RH  043%=      5-min Rain = 0
KWE2 142224Z 09006KT 11/M01 A3036 RMK A01 T01111007  RH  044%=      5-min Rain = 0
KWE2 142225Z 09008KT 11/M01 A3036 RMK A01 T01111006  RH  044%=      5-min Rain = 0
KWE2 142226Z 08008KT 11/M01 A3036 RMK A01 T01121007  RH  044%=      5-min Rain = 0
KWE2 142227Z 07006KT 11/M01 A3036 RMK A01 T01121007  RH  044%=      5-min Rain = 0
KWE2 142228Z 05008KT 11/M01 A3036 RMK A01 T01121007  RH  044%=      5-min Rain = 0
KWE2 142229Z 06009KT 11/M01 A3036 RMK A01 T01131007  RH  043%=      5-min Rain = 0
KWE2 142230Z 06009KT 11/M01 A3036 RMK A01 T01131008  RH  043%=      5-min Rain = 0
KWE2 142231Z 06009KT 11/M01 A3036 RMK A01 T01131008  RH  043%=      5-min Rain = 0
KWE2 142232Z 05007KT 11/M01 A3036 RMK A01 T01131007  RH  043%=      5-min Rain = 0
KWE2 142233Z 05007KT 11/M01 A3036 RMK A01 T01121009  RH  043%=      5-min Rain = 0
KWE2 142234Z 07007KT 11/M01 A3036 RMK A01 T01111008  RH  044%=      5-min Rain = 0
KWE2 142235Z 09008KT 11/M01 A3036 RMK A01 T01111007  RH  044%=      5-min Rain = 0
KWE2 142236Z 08006KT 11/M01 A3036 RMK A01 T01111007  RH  044%=      5-min Rain = 0
KWE2 142237Z 09007KT 11/M01 A3036 RMK A01 T01111007  RH  044%=      5-min Rain = 0
KWE2 142238Z 09009KT 11/M01 A3036 RMK A01 T01111006  RH  044%=      5-min Rain = 0
KWE2 142239Z 08008KT 11/M00 A3036 RMK A01 T01121004  RH  045%=      5-min Rain = 0
KWE2 142240Z 05008KT 11/M01 A3036 RMK A01 T01131005  RH  044%=      5-min Rain = 0
KWE2 142241Z 06008KT 11/M01 A3036 RMK A01 T01131007  RH  043%=      5-min Rain = 0
KWE2 142242Z 06007KT 11/M01 A3036 RMK A01 T01131007  RH  043%=      5-min Rain = 0
KWE2 142243Z 05006KT 11/M01 A3036 RMK A01 T01121007  RH  044%=      5-min Rain = 0
KWE2 142244Z 06006KT 11/M01 A3036 RMK A01 T01121008  RH  043%=      5-min Rain = 0
KWE2 142245Z 06006KT 11/M01 A3036 RMK A01 T01111008  RH  044%=      5-min Rain = 0
KWE2 142246Z 07006KT 11/M01 A3036 RMK A01 T01111007  RH  044%=      5-min Rain = 0
KWE2 142247Z 08007KT 11/M01 A3036 RMK A01 T01111008  RH  044%=      5-min Rain = 0
KWE2 142248Z 07006KT 11/M01 A3036 RMK A01 T01111008  RH  044%=      5-min Rain = 0
KWE2 142249Z 07004KT 11/M01 A3036 RMK A01 T01111008  RH  044%=      5-min Rain = 0
KWE2 142250Z 08005KT 11/M01 A3036 RMK A01 T01111008  RH  044%=      5-min Rain = 0
KWE2 142251Z 08004KT 11/M01 A3036 RMK A01 T01111007  RH  044%=      5-min Rain = 0
KWE2 142252Z 07008KT 11/M01 A3036 RMK A01 T01111007  RH  044%=      5-min Rain = 0
KWE2 142253Z 07008KT 11/M01 A3036 RMK A01 T01111008  RH  044%=      5-min Rain = 0
KWE2 142254Z 07006KT 11/M01 A3036 RMK A01 T01111008  RH  044%=      5-min Rain = 0
KWE2 142255Z 08006KT 11/M01 A3036 RMK A01 T01101007  RH  044%=      5-min Rain = 0
KWE2 142256Z 08010KT 11/M01 A3036 RMK A01 T01101007  RH  044%=      5-min Rain = 0
KWE2 142257Z 08008KT 11/M01 A3036 RMK A01 T01101008  RH  044%=      5-min Rain = 0
KWE2 142258Z 08006KT 11/M01 A3036 RMK A01 T01091008  RH  044%=      5-min Rain = 0
KWE2 142259Z 08006KT 11/M01 A3036 RMK A01 T01101007  RH  044%=      5-min Rain = 0
KWE2 142300Z 08008KT 11/M01 A3036 RMK A01 T01101007  RH  044%=      5-min Rain = 0
KWE2 142301Z 09007KT 11/M01 A3036 RMK A01 T01101007  RH  044%=      5-min Rain = 0
KWE2 142302Z 09007KT 11/M01 A3036 RMK A01 T01091008  RH  044%=      5-min Rain = 0
KWE2 142303Z 09007KT 11/M01 A3036 RMK A01 T01091008  RH  044%=      5-min Rain = 0
KWE2 142304Z 08007KT 11/M01 A3037 RMK A01 T01091008  RH  044%=      5-min Rain = 0
KWE2 142305Z 08006KT 11/M01 A3037 RMK A01 T01091007  RH  045%=      5-min Rain = 0
KWE2 142306Z 07008KT 11/M01 A3037 RMK A01 T01081007  RH  045%=      5-min Rain = 0
KWE2 142307Z 07007KT 11/M01 A3037 RMK A01 T01091008  RH  044%=      5-min Rain = 0
KWE2 142308Z 08006KT 11/M01 A3037 RMK A01 T01091008  RH  044%=      5-min Rain = 0
KWE2 142309Z 07005KT 11/M01 A3037 RMK A01 T01081007  RH  045%=      5-min Rain = 0
KWE2 142310Z 08006KT 11/M01 A3037 RMK A01 T01091006  RH  045%=      5-min Rain = 0
KWE2 142311Z 08006KT 11/M01 A3037 RMK A01 T01091006  RH  045%=      5-min Rain = 0
KWE2 142312Z 07008KT 11/M01 A3037 RMK A01 T01091007  RH  045%=      5-min Rain = 0
KWE2 142313Z 07008KT 11/M01 A3037 RMK A01 T01081008  RH  045%=      5-min Rain = 0
KWE2 142314Z 07008KT 11/M01 A3037 RMK A01 T01071008  RH  045%=      5-min Rain = 0
KWE2 142315Z 07006KT 11/M01 A3037 RMK A01 T01071009  RH  045%=      5-min Rain = 0
KWE2 142316Z 07004KT 11/M01 A3037 RMK A01 T01071008  RH  045%=      5-min Rain = 0
KWE2 142317Z 07003KT 11/M01 A3037 RMK A01 T01071007  RH  045%=      5-min Rain = 0
KWE2 142318Z 07005KT 11/M01 A3037 RMK A01 T01071006  RH  046%=      5-min Rain = 0
KWE2 142319Z 08004KT 11/M01 A3037 RMK A01 T01071007  RH  045%=      5-min Rain = 0
KWE2 142320Z 07004KT 11/M01 A3037 RMK A01 T01071006  RH  046%=      5-min Rain = 0
KWE2 142321Z 07004KT 11/M01 A3037 RMK A01 T01061006  RH  046%=      5-min Rain = 0
KWE2 142322Z 07006KT 11/M01 A3037 RMK A01 T01061007  RH  045%=      5-min Rain = 0
KWE2 142323Z 06005KT 11/M01 A3037 RMK A01 T01061007  RH  045%=      5-min Rain = 0
KWE2 142324Z 07004KT 11/M01 A3037 RMK A01 T01061007  RH  046%=      5-min Rain = 0
KWE2 142325Z 08004KT 11/M01 A3037 RMK A01 T01051007  RH  046%=      5-min Rain = 0
KWE2 142326Z 07004KT 11/M01 A3037 RMK A01 T01051006  RH  046%=      5-min Rain = 0
KWE2 142327Z 09005KT 11/M01 A3037 RMK A01 T01051006  RH  046%=      5-min Rain = 0
KWE2 142328Z 09005KT 10/M01 A3037 RMK A01 T01041005  RH  047%=      5-min Rain = 0
KWE2 142329Z 08004KT 10/M00 A3037 RMK A01 T01041004  RH  047%=      5-min Rain = 0
KWE2 142330Z 08004KT 10/M01 A3037 RMK A01 T01031005  RH  047%=      5-min Rain = 0
KWE2 142331Z 08004KT 10/M01 A3037 RMK A01 T01031005  RH  047%=      5-min Rain = 0
KWE2 142332Z 07004KT 10/M00 A3037 RMK A01 T01031004  RH  047%=      5-min Rain = 0
KWE2 142333Z 08004KT 10/M01 A3037 RMK A01 T01021005  RH  047%=      5-min Rain = 0
KWE2 142334Z 08005KT 10/M01 A3037 RMK A01 T01021005  RH  048%=      5-min Rain = 0
KWE2 142335Z 08006KT 10/M01 A3037 RMK A01 T01011005  RH  047%=      5-min Rain = 0
KWE2 142336Z 08005KT 10/M01 A3037 RMK A01 T01011006  RH  047%=      5-min Rain = 0
KWE2 142337Z 08005KT 10/M01 A3037 RMK A01 T01011006  RH  047%=      5-min Rain = 0
KWE2 142338Z 08004KT 10/M01 A3037 RMK A01 T01011005  RH  048%=      5-min Rain = 0
KWE2 142339Z 08005KT 10/M01 A3037 RMK A01 T01001005  RH  048%=      5-min Rain = 0
KWE2 142340Z 09005KT 10/M01 A3038 RMK A01 T01001005  RH  048%=      5-min Rain = 0
KWE2 142341Z 09005KT 10/M00 A3038 RMK A01 T00981004  RH  049%=      5-min Rain = 0
KWE2 142342Z 10005KT 10/M00 A3038 RMK A01 T00971002  RH  050%=      5-min Rain = 0
KWE2 142343Z 09005KT 10/M00 A3038 RMK A01 T00951003  RH  050%=      5-min Rain = 0
KWE2 142344Z 09005KT 09/M00 A3038 RMK A01 T00941003  RH  050%=      5-min Rain = 0
KWE2 142345Z 09004KT 09/M00 A3038 RMK A01 T00941003  RH  051%=      5-min Rain = 0
KWE2 142346Z 09004KT 09/M00 A3038 RMK A01 T00931002  RH  051%=      5-min Rain = 0
KWE2 142347Z 09005KT 09/M00 A3038 RMK A01 T00921002  RH  052%=      5-min Rain = 0
KWE2 142348Z 09005KT 09/M00 A3038 RMK A01 T00911002  RH  052%=      5-min Rain = 0
KWE2 142349Z 09004KT 09/M00 A3038 RMK A01 T00901001  RH  053%=      5-min Rain = 0
KWE2 142350Z 09004KT 09/M00 A3038 RMK A01 T00891001  RH  053%=      5-min Rain = 0
KWE2 142351Z 10004KT 09/M00 A3038 RMK A01 T00891001  RH  053%=      5-min Rain = 0
KWE2 142352Z 09004KT 09/M00 A3038 RMK A01 T00881001  RH  053%=      5-min Rain = 0
KWE2 142353Z 09004KT 09/M00 A3038 RMK A01 T00871001  RH  054%=      5-min Rain = 0
KWE2 142354Z 10003KT 09/M00 A3038 RMK A01 T00871003  RH  053%=      5-min Rain = 0
KWE2 142355Z 09004KT 09/M00 A3038 RMK A01 T00861003  RH  054%=      5-min Rain = 0
KWE2 142356Z 09004KT 09/M00 A3038 RMK A01 T00851003  RH  054%=      5-min Rain = 0
KWE2 142357Z 09003KT 08/M00 A3038 RMK A01 T00841002  RH  055%=      5-min Rain = 0
KWE2 142358Z 09003KT 08/M00 A3038 RMK A01 T00841001  RH  055%=      5-min Rain = 0
KWE2 142359Z 09003KT 08/M00 A3038 RMK A01 T00841002  RH  055%=      5-min Rain = 0
KWE2 150000Z 08003KT 08/M00 A3038 RMK A01 T00841001  RH  055%=      5-min Rain = 0
KWE2 150001Z 08003KT 08/M00 A3038 RMK A01 T00841002  RH  055%=      5-min Rain = 0
KWE2 150002Z 08003KT 08/M00 A3038 RMK A01 T00841003  RH  054%=      5-min Rain = 0
KWE2 150003Z 09003KT 09/M00 A3038 RMK A01 T00851003  RH  054%=      5-min Rain = 0
KWE2 150004Z 08003KT 09/M00 A3038 RMK A01 T00851002  RH  054%=      5-min Rain = 0
KWE2 150005Z 09003KT 09/M00 A3039 RMK A01 T00851002  RH  054%=      5-min Rain = 0
KWE2 150006Z 09003KT 09/M00 A3039 RMK A01 T00851001  RH  055%=      5-min Rain = 0
KWE2 150007Z 10002KT 08/M00 A3039 RMK A01 T00841001  RH  055%=      5-min Rain = 0
KWE2 150008Z 10003KT 08/M00 A3039 RMK A01 T00831002  RH  055%=      5-min Rain = 0
KWE2 150009Z 10003KT 08/M00 A3039 RMK A01 T00821003  RH  055%=      5-min Rain = 0
KWE2 150010Z 09003KT 08/M00 A3039 RMK A01 T00801003  RH  056%=      5-min Rain = 0
KWE2 150011Z 10003KT 08/M00 A3039 RMK A01 T00781003  RH  056%=      5-min Rain = 0
KWE2 150012Z 10003KT 08/M00 A3039 RMK A01 T00761004  RH  057%=      5-min Rain = 0
KWE2 150013Z 10003KT 07/M00 A3039 RMK A01 T00741003  RH  058%=      5-min Rain = 0
KWE2 150014Z 09003KT 07/M00 A3039 RMK A01 T00731002  RH  059%=      5-min Rain = 0
KWE2 150015Z 09003KT 07/M00 A3039 RMK A01 T00731003  RH  059%=      5-min Rain = 0
KWE2 150016Z 09003KT 07/M00 A3039 RMK A01 T00731003  RH  059%=      5-min Rain = 0
KWE2 150017Z 09003KT 07/M00 A3039 RMK A01 T00731002  RH  059%=      5-min Rain = 0
KWE2 150018Z 09003KT 07/M00 A3039 RMK A01 T00731001  RH  059%=      5-min Rain = 0
KWE2 150019Z 09003KT 07/M00 A3039 RMK A01 T00721001  RH  060%=      5-min Rain = 0
KWE2 150020Z 10003KT 07/M00 A3039 RMK A01 T00721002  RH  059%=      5-min Rain = 0
KWE2 150021Z 09003KT 07/M00 A3039 RMK A01 T00721003  RH  059%=      5-min Rain = 0
KWE2 150022Z 10003KT 07/M00 A3039 RMK A01 T00721003  RH  059%=      5-min Rain = 0
KWE2 150023Z 10003KT 07/M00 A3039 RMK A01 T00721003  RH  059%=      5-min Rain = 0
KWE2 150024Z 09003KT 07/M00 A3039 RMK A01 T00711002  RH  060%=      5-min Rain = 0
KWE2 150025Z 09003KT 07/M00 A3039 RMK A01 T00701003  RH  060%=      5-min Rain = 0
KWE2 150026Z 09003KT 07/M00 A3039 RMK A01 T00701003  RH  060%=      5-min Rain = 0
KWE2 150027Z 08003KT 07/M00 A3039 RMK A01 T00691003  RH  060%=      5-min Rain = 0
KWE2 150028Z 08003KT 07/M00 A3039 RMK A01 T00701003  RH  060%=      5-min Rain = 0
KWE2 150029Z 08003KT 07/M00 A3039 RMK A01 T00711002  RH  060%=      5-min Rain = 0
KWE2 150030Z 09003KT 07/M00 A3039 RMK A01 T00721001  RH  060%=      5-min Rain = 0
KWE2 150031Z 09003KT 07/00 A3039 RMK A01 T00730000  RH  060%=      5-min Rain = 0
KWE2 150032Z 09003KT 07/M00 A3039 RMK A01 T00731001  RH  059%=      5-min Rain = 0
KWE2 150033Z 08002KT 07/00 A3039 RMK A01 T007300-0  RH  060%=      5-min Rain = 0
KWE2 150034Z 08002KT 07/M00 A304 RMK A01 T00721001  RH  060%=      5-min Rain = 0
KWE2 150035Z 09003KT 07/00 A304 RMK A01 T007200-0  RH  060%=      5-min Rain = 0
KWE2 150036Z 08003KT 07/M00 A304 RMK A01 T00721001  RH  060%=      5-min Rain = 0
KWE2 150037Z 08002KT 07/M00 A304 RMK A01 T00721002  RH  059%=      5-min Rain = 0
KWE2 150038Z 08002KT 07/M00 A304 RMK A01 T00731002  RH  059%=      5-min Rain = 0
KWE2 150039Z 09002KT 07/M00 A304 RMK A01 T00731003  RH  059%=      5-min Rain = 0
KWE2 150040Z 09002KT 07/M00 A304 RMK A01 T00731003  RH  059%=      5-min Rain = 0
KWE2 150041Z 09002KT 07/M00 A304 RMK A01 T00721003  RH  059%=      5-min Rain = 0
KWE2 150042Z 08002KT 07/M00 A304 RMK A01 T00721002  RH  059%=      5-min Rain = 0
KWE2 150043Z 08002KT 07/M00 A304 RMK A01 T00711002  RH  060%=      5-min Rain = 0
KWE2 150044Z 08002KT 07/M00 A304 RMK A01 T00711003  RH  060%=      5-min Rain = 0
KWE2 150045Z 08002KT 07/M00 A304 RMK A01 T00711003  RH  060%=      5-min Rain = 0
KWE2 150046Z 07002KT 07/M00 A304 RMK A01 T00711002  RH  060%=      5-min Rain = 0
KWE2 150047Z 07002KT 07/M00 A304 RMK A01 T00711003  RH  059%=      5-min Rain = 0
KWE2 150048Z 07002KT 07/M00 A304 RMK A01 T00711003  RH  059%=      5-min Rain = 0
KWE2 150049Z 07003KT 07/M00 A304 RMK A01 T00711003  RH  059%=      5-min Rain = 0
KWE2 150050Z 07003KT 07/M00 A304 RMK A01 T00711004  RH  059%=      5-min Rain = 0
KWE2 150051Z 07003KT 07/M00 A304 RMK A01 T00711003  RH  059%=      5-min Rain = 0
KWE2 150052Z 07003KT 07/M00 A304 RMK A01 T00701003  RH  060%=      5-min Rain = 0
KWE2 150053Z 06003KT 07/M00 A304 RMK A01 T00701004  RH  059%=      5-min Rain = 0
KWE2 150054Z 06003KT 07/M00 A304 RMK A01 T00701004  RH  059%=      5-min Rain = 0
KWE2 150055Z 06003KT 07/M01 A304 RMK A01 T00701005  RH  059%=      5-min Rain = 0
KWE2 150056Z 06003KT 07/M01 A304 RMK A01 T00701005  RH  059%=      5-min Rain = 0
KWE2 150057Z 07003KT 07/M01 A304 RMK A01 T00701005  RH  059%=      5-min Rain = 0
KWE2 150058Z 06003KT 07/M00 A304 RMK A01 T00701004  RH  059%=      5-min Rain = 0
KWE2 150059Z 06003KT 07/M00 A304 RMK A01 T00691004  RH  060%=      5-min Rain = 0
KWE2 150100Z 06003KT 07/M00 A304 RMK A01 T00691004  RH  060%=      5-min Rain = 0
KWE2 150101Z 06003KT 07/M00 A304 RMK A01 T00691004  RH  060%=      5-min Rain = 0
KWE2 150102Z 06003KT 07/M00 A304 RMK A01 T00681004  RH  060%=      5-min Rain = 0
KWE2 150103Z 05003KT 07/M00 A304 RMK A01 T00681004  RH  060%=      5-min Rain = 0
KWE2 150104Z 05003KT 07/M01 A3041 RMK A01 T00661005  RH  061%=      5-min Rain = 0
KWE2 150105Z 04003KT 06/M01 A3041 RMK A01 T00631005  RH  061%=      5-min Rain = 0
KWE2 150106Z 04002KT 06/M01 A3041 RMK A01 T00621005  RH  062%=      5-min Rain = 0
KWE2 150107Z 04002KT 06/M00 A3041 RMK A01 T00601004  RH  064%=      5-min Rain = 0
KWE2 150108Z 04002KT 06/M00 A3041 RMK A01 T00581003  RH  065%=      5-min Rain = 0
KWE2 150109Z 04002KT 06/M00 A3041 RMK A01 T00551002  RH  067%=      5-min Rain = 0
KWE2 150110Z 04002KT 05/M00 A3041 RMK A01 T00511002  RH  069%=      5-min Rain = 0
KWE2 150111Z 04001KT 05/M00 A3041 RMK A01 T00461003  RH  071%=      5-min Rain = 0
KWE2 150112Z 04001KT 04/M00 A3041 RMK A01 T00431003  RH  072%=      5-min Rain = 0
KWE2 150113Z 02001KT 04/M00 A3041 RMK A01 T00421003  RH  073%=      5-min Rain = 0
KWE2 150114Z 02001KT 04/M00 A3041 RMK A01 T00411003  RH  073%=      5-min Rain = 0
KWE2 150115Z 02000KT 04/M00 A3041 RMK A01 T00391003  RH  074%=      5-min Rain = 0
KWE2 150116Z 02001KT 04/M00 A3041 RMK A01 T00391003  RH  074%=      5-min Rain = 0
KWE2 150117Z 02001KT 04/M00 A3041 RMK A01 T00381003  RH  074%=      5-min Rain = 0
KWE2 150118Z 04001KT 04/M00 A3041 RMK A01 T00391003  RH  074%=      5-min Rain = 0
KWE2 150119Z 05001KT 04/M00 A3041 RMK A01 T00391003  RH  074%=      5-min Rain = 0
KWE2 150120Z 05001KT 04/M00 A3041 RMK A01 T00391003  RH  074%=      5-min Rain = 0
KWE2 150121Z 05002KT 04/M00 A3041 RMK A01 T00381002  RH  075%=      5-min Rain = 0
KWE2 150122Z 05002KT 04/M00 A3041 RMK A01 T00381002  RH  075%=      5-min Rain = 0
KWE2 150123Z 06002KT 04/M00 A3041 RMK A01 T00381001  RH  076%=      5-min Rain = 0
KWE2 150124Z 06002KT 04/M00 A3041 RMK A01 T00381001  RH  076%=      5-min Rain = 0
KWE2 150125Z 06002KT 04/M00 A3041 RMK A01 T00381001  RH  076%=      5-min Rain = 0
KWE2 150126Z 06002KT 04/M00 A3041 RMK A01 T00381002  RH  075%=      5-min Rain = 0
KWE2 150127Z 06002KT 04/M00 A3041 RMK A01 T00391003  RH  074%=      5-min Rain = 0
KWE2 150128Z 06002KT 04/M00 A3041 RMK A01 T00401003  RH  073%=      5-min Rain = 0
KWE2 150129Z 06002KT 04/M00 A3041 RMK A01 T00411003  RH  073%=      5-min Rain = 0
KWE2 150130Z 07002KT 04/M00 A3041 RMK A01 T00421003  RH  072%=      5-min Rain = 0
KWE2 150131Z 06002KT 04/M00 A3041 RMK A01 T00431003  RH  072%=      5-min Rain = 0
KWE2 150132Z 06002KT 04/M00 A3041 RMK A01 T00441003  RH  072%=      5-min Rain = 0
KWE2 150133Z 06002KT 04/M00 A3042 RMK A01 T00441003  RH  072%=      5-min Rain = 0
KWE2 150134Z 07002KT 04/M00 A3042 RMK A01 T00441003  RH  072%=      5-min Rain = 0
KWE2 150135Z 07001KT 04/M00 A3042 RMK A01 T00441002  RH  072%=      5-min Rain = 0
KWE2 150136Z 07001KT 04/M00 A3042 RMK A01 T00441001  RH  073%=      5-min Rain = 0
KWE2 150137Z 07001KT 04/00 A3042 RMK A01 T004300-0  RH  073%=      5-min Rain = 0
KWE2 150138Z 07001KT 04/M00 A3042 RMK A01 T00431001  RH  073%=      5-min Rain = 0
KWE2 150139Z 07002KT 04/M00 A3042 RMK A01 T00421001  RH  074%=      5-min Rain = 0
KWE2 150140Z 07002KT 04/M00 A3042 RMK A01 T00421001  RH  074%=      5-min Rain = 0
KWE2 150141Z 07001KT 04/M00 A3042 RMK A01 T00411001  RH  074%=      5-min Rain = 0
KWE2 150142Z 07002KT 04/M00 A3042 RMK A01 T00411002  RH  074%=      5-min Rain = 0
KWE2 150143Z 07002KT 04/M00 A3042 RMK A01 T00411002  RH  074%=      5-min Rain = 0
KWE2 150144Z 07002KT 04/M00 A3042 RMK A01 T00401002  RH  074%=      5-min Rain = 0
KWE2 150145Z 07001KT 04/M00 A3042 RMK A01 T00401002  RH  074%=      5-min Rain = 0
KWE2 150146Z 07001KT 04/M00 A3042 RMK A01 T00401001  RH  074%=      5-min Rain = 0
KWE2 150147Z 07001KT 04/M00 A3042 RMK A01 T00401002  RH  074%=      5-min Rain = 0
KWE2 150148Z 07001KT 04/M00 A3042 RMK A01 T00401002  RH  074%=      5-min Rain = 0
KWE2 150149Z 07002KT 04/M00 A3042 RMK A01 T00391002  RH  074%=      5-min Rain = 0
KWE2 150150Z 07002KT 04/M00 A3042 RMK A01 T00391002  RH  075%=      5-min Rain = 0
KWE2 150151Z 07002KT 04/M00 A3042 RMK A01 T00391002  RH  075%=      5-min Rain = 0
KWE2 150152Z 07002KT 04/M00 A3042 RMK A01 T00381002  RH  075%=      5-min Rain = 0
KWE2 150153Z 08002KT 04/M00 A3042 RMK A01 T00371001  RH  076%=      5-min Rain = 0
KWE2 150154Z 08002KT 04/M00 A3042 RMK A01 T00371001  RH  076%=      5-min Rain = 0
KWE2 150155Z 07003KT 04/M00 A3042 RMK A01 T00371002  RH  076%=      5-min Rain = 0
KWE2 150156Z 07002KT 04/M00 A3042 RMK A01 T00361002  RH  076%=      5-min Rain = 0
KWE2 150157Z 07002KT 04/M00 A3042 RMK A01 T00361002  RH  076%=      5-min Rain = 0
KWE2 150158Z 07002KT 04/M00 A3042 RMK A01 T00371002  RH  076%=      5-min Rain = 0
KWE2 150159Z 07002KT 04/M00 A3042 RMK A01 T00371001  RH  076%=      5-min Rain = 0
KWE2 150200Z 07002KT 04/00 A3042 RMK A01 T00370000  RH  077%=      5-min Rain = 0
KWE2 150201Z 07002KT 04/00 A3042 RMK A01 T00360002  RH  078%=      5-min Rain = 0
KWE2 150202Z 07002KT 04/00 A3042 RMK A01 T00360004  RH  079%=      5-min Rain = 0
KWE2 150203Z 08002KT 04/00 A3042 RMK A01 T00360004  RH  079%=      5-min Rain = 0
KWE2 150204Z 08002KT 04/00 A3042 RMK A01 T00360003  RH  079%=      5-min Rain = 0
KWE2 150205Z 08002KT 04/00 A3042 RMK A01 T00360003  RH  079%=      5-min Rain = 0
KWE2 150206Z 08002KT 04/00 A3042 RMK A01 T00350002  RH  079%=      5-min Rain = 0
KWE2 150207Z 08002KT 04/00 A3042 RMK A01 T00350001  RH  079%=      5-min Rain = 0
KWE2 150208Z 08002KT 03/00 A3042 RMK A01 T00340002  RH  079%=      5-min Rain = 0
KWE2 150209Z 09002KT 03/00 A3042 RMK A01 T00340000  RH  079%=      5-min Rain = 0
KWE2 150210Z 09003KT 03/00 A3042 RMK A01 T003400-0  RH  078%=      5-min Rain = 0
KWE2 150211Z 09002KT 03/M00 A3042 RMK A01 T00331001  RH  079%=      5-min Rain = 0
KWE2 150212Z 09003KT 03/00 A3042 RMK A01 T00330003  RH  081%=      5-min Rain = 0
KWE2 150213Z 09002KT 03/01 A3042 RMK A01 T00320006  RH  083%=      5-min Rain = 0
KWE2 150214Z 10002KT 03/01 A3042 RMK A01 T00320005  RH  082%=      5-min Rain = 0
KWE2 150215Z 10002KT 03/00 A3042 RMK A01 T00310000  RH  080%=      5-min Rain = 0
KWE2 150216Z 10002KT 03/M00 A3042 RMK A01 T00321002  RH  079%=      5-min Rain = 0
KWE2 150217Z 10002KT 03/M00 A3042 RMK A01 T00311002  RH  078%=      5-min Rain = 0
KWE2 150218Z 10002KT 03/M00 A3042 RMK A01 T00321003  RH  078%=      5-min Rain = 0
KWE2 150219Z 10002KT 03/M00 A3042 RMK A01 T00311004  RH  078%=      5-min Rain = 0
KWE2 150220Z 10002KT 03/M00 A3042 RMK A01 T00311003  RH  078%=      5-min Rain = 0
KWE2 150221Z 10002KT 03/M00 A3042 RMK A01 T00311004  RH  078%=      5-min Rain = 0
KWE2 150222Z 10002KT 03/M00 A3042 RMK A01 T00311004  RH  078%=      5-min Rain = 0
KWE2 150223Z 10001KT 03/M00 A3042 RMK A01 T00311004  RH  078%=      5-min Rain = 0
KWE2 150224Z 10001KT 03/M00 A3042 RMK A01 T00311004  RH  078%=      5-min Rain = 0
KWE2 150225Z 10001KT 03/M00 A3043 RMK A01 T00311004  RH  078%=      5-min Rain = 0
KWE2 150226Z 10001KT 03/M00 A3043 RMK A01 T00311004  RH  078%=      5-min Rain = 0
KWE2 150227Z 10001KT 03/M00 A3043 RMK A01 T00311004  RH  078%=      5-min Rain = 0
KWE2 150228Z 10002KT 03/M00 A3043 RMK A01 T00301004  RH  078%=      5-min Rain = 0
KWE2 150229Z 10002KT 03/M01 A3043 RMK A01 T00291005  RH  078%=      5-min Rain = 0
KWE2 150230Z 09002KT 03/M01 A3043 RMK A01 T00291005  RH  078%=      5-min Rain = 0
KWE2 150231Z 09001KT 03/M01 A3043 RMK A01 T00281006  RH  079%=      5-min Rain = 0
KWE2 150232Z 09001KT 03/M01 A3043 RMK A01 T00271005  RH  079%=      5-min Rain = 0
KWE2 150233Z 09001KT 03/M01 A3043 RMK A01 T00271005  RH  079%=      5-min Rain = 0
KWE2 150234Z 09001KT 03/M01 A3043 RMK A01 T00271005  RH  079%=      5-min Rain = 0
KWE2 150235Z 10001KT 03/M01 A3043 RMK A01 T00261006  RH  079%=      5-min Rain = 0
KWE2 150236Z 10001KT 03/M01 A3043 RMK A01 T00261005  RH  080%=      5-min Rain = 0
KWE2 150237Z 11001KT 03/M01 A3043 RMK A01 T00251005  RH  080%=      5-min Rain = 0
KWE2 150238Z 11000KT 02/M01 A3043 RMK A01 T00241006  RH  081%=      5-min Rain = 0
KWE2 150239Z 00000KT 02/M01 A3043 RMK A01 T00241005  RH  081%=      5-min Rain = 0
KWE2 150240Z 00000KT 02/M01 A3043 RMK A01 T00241005  RH  081%=      5-min Rain = 0
KWE2 150241Z 11000KT 02/M01 A3043 RMK A01 T00231005  RH  081%=      5-min Rain = 0
KWE2 150242Z 12001KT 02/M01 A3043 RMK A01 T00231005  RH  082%=      5-min Rain = 0
KWE2 150243Z 12001KT 02/M01 A3043 RMK A01 T00231005  RH  081%=      5-min Rain = 0
KWE2 150244Z 12001KT 02/M01 A3043 RMK A01 T00231005  RH  081%=      5-min Rain = 0
KWE2 150245Z 12001KT 02/M01 A3043 RMK A01 T00231005  RH  082%=      5-min Rain = 0
KWE2 150246Z 12001KT 02/M00 A3043 RMK A01 T00231004  RH  082%=      5-min Rain = 0
KWE2 150247Z 12000KT 02/M00 A3043 RMK A01 T00231004  RH  082%=      5-min Rain = 0
KWE2 150248Z 00000KT 02/M01 A3043 RMK A01 T00221005  RH  082%=      5-min Rain = 0
KWE2 150249Z 00000KT 02/M00 A3043 RMK A01 T00231004  RH  082%=      5-min Rain = 0
KWE2 150250Z 00000KT 02/M00 A3043 RMK A01 T00221003  RH  083%=      5-min Rain = 0
KWE2 150251Z 00000KT 02/M00 A3043 RMK A01 T00211003  RH  084%=      5-min Rain = 0
KWE2 150252Z 13000KT 02/M00 A3043 RMK A01 T00221003  RH  084%=      5-min Rain = 0
KWE2 150253Z 14001KT 02/M00 A3043 RMK A01 T00211004  RH  083%=      5-min Rain = 0
KWE2 150254Z 14001KT 02/M00 A3043 RMK A01 T00211004  RH  083%=      5-min Rain = 0
KWE2 150255Z 14001KT 02/M00 A3043 RMK A01 T00211004  RH  084%=      5-min Rain = 0
KWE2 150256Z 14001KT 02/M00 A3043 RMK A01 T00211003  RH  084%=      5-min Rain = 0
KWE2 150257Z 14001KT 02/M00 A3043 RMK A01 T00211002  RH  085%=      5-min Rain = 0
KWE2 150258Z 14001KT 02/M00 A3043 RMK A01 T00211002  RH  085%=      5-min Rain = 0
KWE2 150259Z 14001KT 02/M00 A3043 RMK A01 T00211002  RH  085%=      5-min Rain = 0
KWE2 150300Z 14001KT 02/M00 A3043 RMK A01 T00201003  RH  084%=      5-min Rain = 0
KWE2 150301Z 14001KT 02/M00 A3043 RMK A01 T00211003  RH  084%=      5-min Rain = 0
KWE2 150302Z 14001KT 02/M00 A3043 RMK A01 T00211002  RH  085%=      5-min Rain = 0
KWE2 150303Z 14001KT 02/M00 A3043 RMK A01 T00211003  RH  085%=      5-min Rain = 0
KWE2 150304Z 14001KT 02/M00 A3043 RMK A01 T00211004  RH  083%=      5-min Rain = 0
KWE2 150305Z 14001KT 02/M01 A3043 RMK A01 T00221005  RH  082%=      5-min Rain = 0
KWE2 150306Z 14001KT 02/M01 A3043 RMK A01 T00231005  RH  082%=      5-min Rain = 0
KWE2 150307Z 15001KT 02/M01 A3043 RMK A01 T00231006  RH  081%=      5-min Rain = 0
KWE2 150308Z 14001KT 02/M01 A3043 RMK A01 T00241005  RH  081%=      5-min Rain = 0
KWE2 150309Z 14001KT 02/M01 A3043 RMK A01 T00241005  RH  081%=      5-min Rain = 0
KWE2 150310Z 14001KT 02/M01 A3043 RMK A01 T00241005  RH  081%=      5-min Rain = 0
KWE2 150311Z 14001KT 02/M01 A3043 RMK A01 T00241005  RH  081%=      5-min Rain = 0
KWE2 150312Z 14001KT 02/M01 A3043 RMK A01 T00231005  RH  081%=      5-min Rain = 0
KWE2 150313Z 14002KT 02/M01 A3043 RMK A01 T00231005  RH  082%=      5-min Rain = 0
KWE2 150314Z 13002KT 02/M00 A3043 RMK A01 T00221004  RH  083%=      5-min Rain = 0
KWE2 150315Z 13002KT 02/M01 A3043 RMK A01 T00221005  RH  083%=      5-min Rain = 0
KWE2 150316Z 13002KT 02/M01 A3043 RMK A01 T00211005  RH  083%=      5-min Rain = 0
KWE2 150317Z 13002KT 02/M00 A3043 RMK A01 T00211004  RH  083%=      5-min Rain = 0
KWE2 150318Z 13002KT 02/M00 A3043 RMK A01 T00211003  RH  084%=      5-min Rain = 0
KWE2 150319Z 13002KT 02/M01 A3043 RMK A01 T00201005  RH  083%=      5-min Rain = 0
KWE2 150320Z 13003KT 02/M01 A3043 RMK A01 T00191006  RH  083%=      5-min Rain = 0
KWE2 150321Z 13003KT 02/M01 A3043 RMK A01 T00181007  RH  083%=      5-min Rain = 0
KWE2 150322Z 13003KT 02/M01 A3043 RMK A01 T00171008  RH  083%=      5-min Rain = 0
KWE2 150323Z 13003KT 02/M01 A3043 RMK A01 T00171007  RH  084%=      5-min Rain = 0
KWE2 150324Z 13003KT 02/M01 A3043 RMK A01 T00171006  RH  084%=      5-min Rain = 0
KWE2 150325Z 13003KT 02/M01 A3043 RMK A01 T00181006  RH  084%=      5-min Rain = 0
KWE2 150326Z 13002KT 02/M01 A3044 RMK A01 T00181006  RH  084%=      5-min Rain = 0
KWE2 150327Z 13002KT 02/M01 A3044 RMK A01 T00181007  RH  084%=      5-min Rain = 0
KWE2 150328Z 14002KT 02/M01 A3044 RMK A01 T00181008  RH  083%=      5-min Rain = 0
KWE2 150329Z 14002KT 02/M01 A3044 RMK A01 T00171008  RH  083%=      5-min Rain = 0
KWE2 150330Z 14002KT 02/M01 A3044 RMK A01 T00171008  RH  084%=      5-min Rain = 0
KWE2 150331Z 14002KT 02/M01 A3044 RMK A01 T00161008  RH  084%=      5-min Rain = 0
KWE2 150332Z 15002KT 02/M01 A3044 RMK A01 T00161008  RH  084%=      5-min Rain = 0
KWE2 150333Z 15002KT 02/M01 A3044 RMK A01 T00161008  RH  084%=      5-min Rain = 0
KWE2 150334Z 15002KT 02/M01 A3044 RMK A01 T00151009  RH  084%=      5-min Rain = 0
KWE2 150335Z 15002KT 02/M01 A3044 RMK A01 T00151008  RH  084%=      5-min Rain = 0
KWE2 150336Z 15002KT 02/M01 A3044 RMK A01 T00151008  RH  085%=      5-min Rain = 0
KWE2 150337Z 14002KT 02/M01 A3044 RMK A01 T00161008  RH  084%=      5-min Rain = 0
KWE2 150338Z 14002KT 02/M01 A3044 RMK A01 T00161008  RH  084%=      5-min Rain = 0
KWE2 150339Z 14002KT 02/M01 A3044 RMK A01 T00161008  RH  084%=      5-min Rain = 0
KWE2 150340Z 14002KT 02/M01 A3044 RMK A01 T00161008  RH  085%=      5-min Rain = 0
KWE2 150341Z 15002KT 02/M01 A3044 RMK A01 T00161008  RH  085%=      5-min Rain = 0
KWE2 150342Z 15003KT 02/M01 A3044 RMK A01 T00161007  RH  085%=      5-min Rain = 0
KWE2 150343Z 15003KT 02/M01 A3044 RMK A01 T00161007  RH  084%=      5-min Rain = 0
KWE2 150344Z 15003KT 02/M01 A3044 RMK A01 T00171007  RH  084%=      5-min Rain = 0
KWE2 150345Z 15003KT 02/M01 A3044 RMK A01 T00181007  RH  084%=      5-min Rain = 0
KWE2 150346Z 15003KT 02/M01 A3044 RMK A01 T00181008  RH  083%=      5-min Rain = 0
KWE2 150347Z 15003KT 02/M01 A3044 RMK A01 T00181008  RH  083%=      5-min Rain = 0
KWE2 150348Z 15003KT 02/M01 A3044 RMK A01 T00181009  RH  083%=      5-min Rain = 0
KWE2 150349Z 15003KT 02/M01 A3044 RMK A01 T00181009  RH  083%=      5-min Rain = 0
KWE2 150350Z 15003KT 02/M01 A3044 RMK A01 T00171010  RH  082%=      5-min Rain = 0
KWE2 150351Z 15003KT 02/M01 A3044 RMK A01 T00171010  RH  082%=      5-min Rain = 0
KWE2 150352Z 15002KT 02/M01 A3044 RMK A01 T00171010  RH  083%=      5-min Rain = 0
KWE2 150353Z 15002KT 02/M01 A3044 RMK A01 T00161009  RH  083%=      5-min Rain = 0
KWE2 150354Z 14002KT 02/M01 A3044 RMK A01 T00161009  RH  083%=      5-min Rain = 0
KWE2 150355Z 14002KT 02/M01 A3044 RMK A01 T00171008  RH  084%=      5-min Rain = 0
KWE2 150356Z 14002KT 02/M01 A3044 RMK A01 T00171007  RH  084%=      5-min Rain = 0
KWE2 150357Z 14002KT 02/M01 A3044 RMK A01 T00181006  RH  084%=      5-min Rain = 0
KWE2 150358Z 14002KT 02/M01 A3044 RMK A01 T00181005  RH  085%=      5-min Rain = 0
KWE2 150359Z 14002KT 02/M00 A3044 RMK A01 T00181004  RH  085%=      5-min Rain = 0
KWE2 150400Z 14002KT 02/M00 A3044 RMK A01 T00181004  RH  085%=      5-min Rain = 0
KWE2 150401Z 14002KT 02/M00 A3044 RMK A01 T00181004  RH  085%=      5-min Rain = 0
KWE2 150402Z 15002KT 02/M00 A3044 RMK A01 T00181004  RH  085%=      5-min Rain = 0
KWE2 150403Z 15002KT 02/M01 A3044 RMK A01 T00171005  RH  085%=      5-min Rain = 0
KWE2 150404Z 15002KT 02/M01 A3044 RMK A01 T00171005  RH  086%=      5-min Rain = 0
KWE2 150405Z 15002KT 02/M00 A3044 RMK A01 T00171004  RH  086%=      5-min Rain = 0
KWE2 150406Z 15002KT 02/M00 A3044 RMK A01 T00171004  RH  086%=      5-min Rain = 0
KWE2 150407Z 15002KT 02/M00 A3044 RMK A01 T00171004  RH  086%=      5-min Rain = 0
KWE2 150408Z 15002KT 02/M00 A3044 RMK A01 T00171004  RH  086%=      5-min Rain = 0
KWE2 150409Z 15002KT 02/M00 A3044 RMK A01 T00171003  RH  086%=      5-min Rain = 0
KWE2 150410Z 15002KT 02/M00 A3044 RMK A01 T00171003  RH  087%=      5-min Rain = 0
KWE2 150411Z 15002KT 02/M00 A3044 RMK A01 T00171002  RH  087%=      5-min Rain = 0
KWE2 150412Z 15002KT 02/M00 A3044 RMK A01 T00171002  RH  088%=      5-min Rain = 0
KWE2 150413Z 16002KT 02/M00 A3044 RMK A01 T00161003  RH  087%=      5-min Rain = 0
KWE2 150414Z 16002KT 02/M00 A3044 RMK A01 T00151004  RH  087%=      5-min Rain = 0
KWE2 150415Z 16002KT 01/M01 A3044 RMK A01 T00141005  RH  087%=      5-min Rain = 0
KWE2 150416Z 17002KT 01/M01 A3044 RMK A01 T00141005  RH  087%=      5-min Rain = 0
KWE2 150417Z 17002KT 01/M00 A3044 RMK A01 T00141004  RH  087%=      5-min Rain = 0
KWE2 150418Z 17002KT 02/M01 A3044 RMK A01 T00151005  RH  087%=      5-min Rain = 0
KWE2 150419Z 17002KT 02/M01 A3044 RMK A01 T00161006  RH  086%=      5-min Rain = 0
KWE2 150420Z 17002KT 02/M01 A3044 RMK A01 T00151006  RH  086%=      5-min Rain = 0
KWE2 150421Z 17002KT 01/M01 A3044 RMK A01 T00141006  RH  086%=      5-min Rain = 0
KWE2 150422Z 17001KT 01/M01 A3044 RMK A01 T00141005  RH  087%=      5-min Rain = 0
KWE2 150423Z 17001KT 01/M01 A3044 RMK A01 T00131005  RH  088%=      5-min Rain = 0
KWE2 150424Z 17001KT 01/M01 A3044 RMK A01 T00121005  RH  088%=      5-min Rain = 0
KWE2 150425Z 17001KT 01/M01 A3044 RMK A01 T00111005  RH  089%=      5-min Rain = 0
KWE2 150426Z 17001KT 01/M01 A3044 RMK A01 T00111005  RH  089%=      5-min Rain = 0
KWE2 150427Z 17001KT 01/M01 A3044 RMK A01 T00101006  RH  089%=      5-min Rain = 0
KWE2 150428Z 17001KT 01/M01 A3044 RMK A01 T00101006  RH  089%=      5-min Rain = 0
KWE2 150429Z 18001KT 01/M01 A3044 RMK A01 T00091007  RH  089%=      5-min Rain = 0
KWE2 150430Z 18001KT 01/M01 A3045 RMK A01 T00091007  RH  089%=      5-min Rain = 0
KWE2 150431Z 18001KT 01/M01 A3045 RMK A01 T00081007  RH  090%=      5-min Rain = 0
KWE2 150432Z 18001KT 01/M01 A3045 RMK A01 T00081007  RH  090%=      5-min Rain = 0
KWE2 150433Z 19001KT 01/M01 A3045 RMK A01 T00081007  RH  090%=      5-min Rain = 0
KWE2 150434Z 20001KT 01/M01 A3045 RMK A01 T00081007  RH  090%=      5-min Rain = 0
KWE2 150435Z 20001KT 01/M01 A3045 RMK A01 T00081007  RH  090%=      5-min Rain = 0
KWE2 150436Z 21001KT 01/M01 A3045 RMK A01 T00081008  RH  089%=      5-min Rain = 0
KWE2 150437Z 21001KT 01/M01 A3045 RMK A01 T00071009  RH  089%=      5-min Rain = 0
KWE2 150438Z 21001KT 01/M01 A3044 RMK A01 T00071008  RH  090%=      5-min Rain = 0
KWE2 150439Z 21001KT 01/M01 A3044 RMK A01 T00061008  RH  090%=      5-min Rain = 0
KWE2 150440Z 20001KT 01/M01 A3044 RMK A01 T00061008  RH  090%=      5-min Rain = 0
KWE2 150441Z 20001KT 01/M01 A3044 RMK A01 T00071007  RH  091%=      5-min Rain = 0
KWE2 150442Z 20001KT 01/M01 A3044 RMK A01 T00061007  RH  091%=      5-min Rain = 0
KWE2 150443Z 20001KT 01/M01 A3044 RMK A01 T00061007  RH  091%=      5-min Rain = 0
KWE2 150444Z 20001KT 01/M01 A3044 RMK A01 T00061007  RH  091%=      5-min Rain = 0
KWE2 150445Z 20001KT 01/M01 A3044 RMK A01 T00061006  RH  091%=      5-min Rain = 0
KWE2 150446Z 20001KT 01/M01 A3044 RMK A01 T00061006  RH  092%=      5-min Rain = 0
KWE2 150447Z 20001KT 01/M01 A3044 RMK A01 T00061006  RH  092%=      5-min Rain = 0
KWE2 150448Z 21001KT 01/M01 A3044 RMK A01 T00061006  RH  092%=      5-min Rain = 0
KWE2 150449Z 21001KT 01/M01 A3044 RMK A01 T00061005  RH  092%=      5-min Rain = 0
KWE2 150450Z 21001KT 01/M01 A3044 RMK A01 T00071005  RH  092%=      5-min Rain = 0
KWE2 150451Z 21001KT 01/M00 A3044 RMK A01 T00071004  RH  092%=      5-min Rain = 0
KWE2 150452Z 21001KT 01/M00 A3044 RMK A01 T00071004  RH  092%=      5-min Rain = 0
KWE2 150453Z 21001KT 01/M00 A3044 RMK A01 T00071004  RH  092%=      5-min Rain = 0
KWE2 150454Z 21001KT 01/M01 A3044 RMK A01 T00071005  RH  092%=      5-min Rain = 0
KWE2 150455Z 21001KT 01/M01 A3044 RMK A01 T00071005  RH  091%=      5-min Rain = 0
KWE2 150456Z 21001KT 01/M01 A3044 RMK A01 T00071006  RH  091%=      5-min Rain = 0
KWE2 150457Z 21001KT 01/M01 A3044 RMK A01 T00071006  RH  091%=      5-min Rain = 0
KWE2 150458Z 21001KT 01/M01 A3044 RMK A01 T00071006  RH  091%=      5-min Rain = 0
KWE2 150459Z 21001KT 01/M01 A3044 RMK A01 T00071006  RH  091%=      5-min Rain = 0
KWE2 150500Z 21001KT 01/M01 A3044 RMK A01 T00071006  RH  091%=      5-min Rain = 0
KWE2 150501Z 21001KT 01/M01 A3044 RMK A01 T00071005  RH  091%=      5-min Rain = 0
KWE2 150502Z 21001KT 01/M01 A3045 RMK A01 T00071006  RH  091%=      5-min Rain = 0
KWE2 150503Z 21001KT 01/M01 A3045 RMK A01 T00071007  RH  090%=      5-min Rain = 0
KWE2 150504Z 22001KT 01/M01 A3045 RMK A01 T00071008  RH  090%=      5-min Rain = 0
KWE2 150505Z 23001KT 01/M01 A3045 RMK A01 T00071009  RH  089%=      5-min Rain = 0
KWE2 150506Z 23001KT 01/M01 A3045 RMK A01 T00061009  RH  090%=      5-min Rain = 0
KWE2 150507Z 23001KT 01/M01 A3045 RMK A01 T00061009  RH  090%=      5-min Rain = 0
KWE2 150508Z 23001KT 01/M01 A3045 RMK A01 T00051009  RH  090%=      5-min Rain = 0
KWE2 150509Z 22001KT 01/M01 A3045 RMK A01 T00051009  RH  090%=      5-min Rain = 0
KWE2 150510Z 23001KT 01/M01 A3045 RMK A01 T00051009  RH  090%=      5-min Rain = 0
KWE2 150511Z 23001KT 01/M01 A3045 RMK A01 T00051009  RH  091%=      5-min Rain = 0
KWE2 150512Z 23002KT 01/M01 A3045 RMK A01 T00051008  RH  091%=      5-min Rain = 0
KWE2 150513Z 23002KT 01/M01 A3045 RMK A01 T00051008  RH  091%=      5-min Rain = 0
KWE2 150514Z 23002KT 01/M01 A3045 RMK A01 T00051008  RH  091%=      5-min Rain = 0
KWE2 150515Z 23002KT 01/M01 A3045 RMK A01 T00051008  RH  091%=      5-min Rain = 0
KWE2 150516Z 24002KT 01/M01 A3045 RMK A01 T00051008  RH  091%=      5-min Rain = 0
KWE2 150517Z 24002KT 00/M01 A3045 RMK A01 T00041008  RH  092%=      5-min Rain = 0
KWE2 150518Z 25002KT 00/M01 A3045 RMK A01 T00041008  RH  092%=      5-min Rain = 0
KWE2 150519Z 26002KT 00/M01 A3045 RMK A01 T00031009  RH  092%=      5-min Rain = 0
KWE2 150520Z 25002KT 00/M01 A3045 RMK A01 T00031009  RH  092%=      5-min Rain = 0
KWE2 150521Z 23002KT 00/M01 A3045 RMK A01 T00031008  RH  092%=      5-min Rain = 0
KWE2 150522Z 23002KT 00/M01 A3045 RMK A01 T00031008  RH  092%=      5-min Rain = 0
KWE2 150523Z 24002KT 00/M01 A3045 RMK A01 T00041009  RH  091%=      5-min Rain = 0
KWE2 150524Z 24002KT 00/M01 A3045 RMK A01 T00031010  RH  091%=      5-min Rain = 0
KWE2 150525Z 24002KT 00/M01 A3045 RMK A01 T00021011  RH  091%=      5-min Rain = 0
KWE2 150526Z 24002KT 00/M01 A3045 RMK A01 T00021011  RH  091%=      5-min Rain = 0
KWE2 150527Z 24002KT 00/M01 A3045 RMK A01 T00011011  RH  092%=      5-min Rain = 0
KWE2 150528Z 24002KT 00/M01 A3045 RMK A01 T00011011  RH  092%=      5-min Rain = 0
KWE2 150529Z 24002KT 00/M01 A3045 RMK A01 T00011010  RH  092%=      5-min Rain = 0
KWE2 150530Z 24002KT 00/M01 A3045 RMK A01 T00011010  RH  092%=      5-min Rain = 0
KWE2 150531Z 24002KT 00/M01 A3045 RMK A01 T00021010  RH  092%=      5-min Rain = 0
KWE2 150532Z 24002KT 00/M01 A3045 RMK A01 T00021010  RH  092%=      5-min Rain = 0
KWE2 150533Z 24003KT 00/M01 A3045 RMK A01 T00021010  RH  092%=      5-min Rain = 0
KWE2 150534Z 24003KT 00/M01 A3045 RMK A01 T00021009  RH  092%=      5-min Rain = 0
KWE2 150535Z 24003KT 00/M01 A3045 RMK A01 T00021009  RH  093%=      5-min Rain = 0
KWE2 150536Z 23003KT 00/M01 A3045 RMK A01 T00021009  RH  093%=      5-min Rain = 0
KWE2 150537Z 23002KT 00/M01 A3045 RMK A01 T00021008  RH  093%=      5-min Rain = 0
KWE2 150538Z 23002KT 00/M01 A3045 RMK A01 T00021008  RH  093%=      5-min Rain = 0
KWE2 150539Z 23002KT 00/M01 A3045 RMK A01 T00021009  RH  092%=      5-min Rain = 0
KWE2 150540Z 23002KT 00/M01 A3045 RMK A01 T00021010  RH  092%=      5-min Rain = 0
KWE2 150541Z 23002KT 00/M01 A3045 RMK A01 T00021011  RH  091%=      5-min Rain = 0
KWE2 150542Z 22001KT 00/M01 A3044 RMK A01 T00031010  RH  091%=      5-min Rain = 0
KWE2 150543Z 21001KT 00/M01 A3044 RMK A01 T00041009  RH  091%=      5-min Rain = 0
KWE2 150544Z 20001KT 01/M01 A3044 RMK A01 T00051008  RH  091%=      5-min Rain = 0
KWE2 150545Z 20002KT 01/M01 A3044 RMK A01 T00051008  RH  090%=      5-min Rain = 0
KWE2 150546Z 20002KT 01/M01 A3044 RMK A01 T00061009  RH  090%=      5-min Rain = 0
KWE2 150547Z 20002KT 01/M01 A3044 RMK A01 T00061010  RH  089%=      5-min Rain = 0
KWE2 150548Z 20002KT 01/M01 A3044 RMK A01 T00061010  RH  089%=      5-min Rain = 0
KWE2 150549Z 20002KT 01/M01 A3044 RMK A01 T00061010  RH  089%=      5-min Rain = 0
KWE2 150550Z 20002KT 01/M01 A3044 RMK A01 T00061010  RH  089%=      5-min Rain = 0
KWE2 150551Z 20002KT 01/M01 A3044 RMK A01 T00061010  RH  089%=      5-min Rain = 0
KWE2 150552Z 20002KT 01/M01 A3044 RMK A01 T00051010  RH  090%=      5-min Rain = 0
KWE2 150553Z 20002KT 01/M01 A3044 RMK A01 T00051009  RH  090%=      5-min Rain = 0
KWE2 150554Z 20002KT 01/M01 A3044 RMK A01 T00051009  RH  091%=      5-min Rain = 0
KWE2 150555Z 20002KT 01/M01 A3044 RMK A01 T00051008  RH  091%=      5-min Rain = 0
KWE2 150556Z 20002KT 01/M01 A3044 RMK A01 T00051008  RH  091%=      5-min Rain = 0
KWE2 150557Z 21003KT 01/M01 A3044 RMK A01 T00051009  RH  091%=      5-min Rain = 0
KWE2 150558Z 21002KT 01/M01 A3044 RMK A01 T00051010  RH  090%=      5-min Rain = 0
KWE2 150559Z 21002KT 01/M01 A3044 RMK A01 T00051011  RH  089%=      5-min Rain = 0

Page generated in 0.1413 seconds.